Wetterdaten: Donnerstag, 29.12.2016
Datum Zeit Temp. Aussen Temp. o. S. +5cm Feuchte Auss BlattFeu 1 Luftdruck Regen Sonnenschein Regendauer Solar Windben Empfang
29.12.2016 00:00 -0,2 C -2,2 C -3,3 C 91 % 15 lf 1042,1 hPa 0,0 l/m 0 min 0 min 0 W/m 0,0 km/h (0 Bft) 87,23 %
29.12.2016 00:02 -0,2 C -1,7 C -3,3 C 91 % 15 lf 1042,0 hPa 0,0 l/m 0 min 0 min 0 W/m 0,0 km/h (0 Bft) 97,44 %
29.12.2016 00:05 -0,3 C -2,2 C -3,3 C 91 % 15 lf 1042,0 hPa 0,0 l/m 0 min 0 min 0 W/m 0,0 km/h (0 Bft) 95,77 %
29.12.2016 00:06 -0,3 C -2,2 C -3,3 C 91 % 15 lf 1042,0 hPa 0,0 l/m 0 min 0 min 0 W/m 0,0 km/h (0 Bft) 100,00 %
29.12.2016 00:08 -0,3 C -2,2 C -3,3 C 91 % 15 lf 1042,0 hPa 0,0 l/m 0 min 0 min 0 W/m 0,0 km/h (0 Bft) 95,74 %
29.12.2016 00:10 -0,4 C -1,1 C -3,3 C 91 % 15 lf 1042,0 hPa 0,0 l/m 0 min 0 min 0 W/m 0,0 km/h (0 Bft) 97,87 %
29.12.2016 00:12 -0,4 C -1,7 C -2,8 C 91 % 15 lf 1041,9 hPa 0,0 l/m 0 min 0 min 0 W/m 0,0 km/h (0 Bft) 95,74 %
29.12.2016 00:14 -0,4 C -1,7 C -2,8 C 91 % 15 lf 1042,0 hPa 0,0 l/m 0 min 0 min 0 W/m 0,0 km/h (0 Bft) 93,48 %
29.12.2016 00:16 -0,5 C -1,1 C -2,8 C 91 % 15 lf 1042,0 hPa 0,0 l/m 0 min 0 min 0 W/m 0,0 km/h (0 Bft) 95,74 %
29.12.2016 00:18 -0,5 C -1,1 C -3,3 C 91 % 15 lf 1041,9 hPa 0,0 l/m 0 min 0 min 0 W/m 0,0 km/h (0 Bft) 91,49 %
29.12.2016 00:20 -0,6 C -1,1 C -3,3 C 91 % 15 lf 1041,9 hPa 0,0 l/m 0 min 0 min 0 W/m 0,0 km/h (0 Bft) 95,74 %
29.12.2016 00:22 -0,6 C -1,1 C -3,3 C 91 % 15 lf 1041,8 hPa 0,0 l/m 0 min 0 min 0 W/m 0,0 km/h (0 Bft) 97,87 %
29.12.2016 00:24 -0,6 C -1,1 C -3,3 C 91 % 15 lf 1041,9 hPa 0,0 l/m 0 min 0 min 0 W/m 0,0 km/h (0 Bft) 97,87 %
29.12.2016 00:26 -0,6 C -1,1 C -2,8 C 91 % 15 lf 1041,9 hPa 0,0 l/m 0 min 0 min 0 W/m 0,0 km/h (0 Bft) 97,83 %
29.12.2016 00:28 -0,6 C -1,1 C -2,8 C 91 % 15 lf 1041,9 hPa 0,0 l/m 0 min 0 min 0 W/m 0,0 km/h (0 Bft) 95,74 %
29.12.2016 00:30 -0,7 C -1,1 C -2,8 C 91 % 15 lf 1041,9 hPa 0,0 l/m 0 min 0 min 0 W/m 0,0 km/h (0 Bft) 97,87 %
29.12.2016 00:32 -0,7 C -1,1 C -2,8 C 91 % 15 lf 1041,7 hPa 0,0 l/m 0 min 0 min 0 W/m 0,0 km/h (0 Bft) 97,87 %
29.12.2016 00:34 -0,7 C -1,1 C -2,8 C 91 % 15 lf 1041,7 hPa 0,0 l/m 0 min 0 min 0 W/m 0,0 km/h (0 Bft) 97,87 %
29.12.2016 00:36 -0,7 C -1,1 C -2,8 C 91 % 15 lf 1041,7 hPa 0,0 l/m 0 min 0 min 0 W/m 0,0 km/h (0 Bft) 96,00 %
29.12.2016 00:38 -0,7 C -1,1 C -2,8 C 91 % 15 lf 1041,7 hPa 0,0 l/m 0 min 0 min 0 W/m 0,0 km/h (0 Bft) 95,65 %
29.12.2016 00:40 -0,7 C -1,7 C -2,8 C 92 % 15 lf 1041,8 hPa 0,0 l/m 0 min 0 min 0 W/m 0,0 km/h (0 Bft) 100,00 %
29.12.2016 00:42 -0,7 C -1,7 C -2,8 C 92 % 15 lf 1041,8 hPa 0,0 l/m 0 min 0 min 0 W/m 0,0 km/h (0 Bft) 100,00 %
29.12.2016 00:44 -0,7 C -1,7 C -2,8 C 92 % 15 lf 1041,8 hPa 0,0 l/m 0 min 0 min 0 W/m 0,0 km/h (0 Bft) 93,62 %
29.12.2016 00:46 -0,8 C -1,7 C -2,8 C 92 % 15 lf 1041,8 hPa 0,0 l/m 0 min 0 min 0 W/m 0,0 km/h (0 Bft) 95,74 %
29.12.2016 00:48 -0,8 C -1,7 C -3,3 C 92 % 15 lf 1041,8 hPa 0,0 l/m 0 min 0 min 0 W/m 0,0 km/h (0 Bft) 100,00 %
29.12.2016 00:50 -0,8 C -1,7 C -3,3 C 92 % 15 lf 1041,8 hPa 0,0 l/m 0 min 0 min 0 W/m 0,0 km/h (0 Bft) 97,83 %
29.12.2016 00:52 -0,8 C -1,7 C -3,3 C 92 % 15 lf 1041,7 hPa 0,0 l/m 0 min 0 min 0 W/m 0,0 km/h (0 Bft) 95,74 %
29.12.2016 00:54 -0,8 C -1,7 C -3,3 C 92 % 15 lf 1041,7 hPa 0,0 l/m 0 min 0 min 0 W/m 0,0 km/h (0 Bft) 97,87 %
29.12.2016 00:56 -0,8 C -2,2 C -3,3 C 92 % 15 lf 1041,7 hPa 0,0 l/m 0 min 0 min 0 W/m 0,0 km/h (0 Bft) 100,00 %
29.12.2016 00:58 -0,8 C -2,2 C -3,3 C 92 % 15 lf 1041,7 hPa 0,0 l/m 0 min 0 min 0 W/m 0,0 km/h (0 Bft) 97,87 %
29.12.2016 01:00 -0,8 C -2,2 C -3,3 C 92 % 15 lf 1041,7 hPa 0,0 l/m 0 min 0 min 0 W/m 0,0 km/h (0 Bft) 100,00 %
29.12.2016 01:02 -0,9 C -2,2 C -3,3 C 92 % 15 lf 1041,6 hPa 0,0 l/m 0 min 0 min 0 W/m 0,0 km/h (0 Bft) 97,87 %
29.12.2016 01:04 -0,9 C -2,2 C -3,3 C 92 % 15 lf 1041,6 hPa 0,0 l/m 0 min 0 min 0 W/m 0,0 km/h (0 Bft) 97,87 %
29.12.2016 01:06 -0,9 C -2,2 C -3,3 C 92 % 15 lf 1041,5 hPa 0,0 l/m 0 min 0 min 0 W/m 0,0 km/h (0 Bft) 98,00 %
29.12.2016 01:08 -0,9 C -2,2 C -3,3 C 92 % 15 lf 1041,5 hPa 0,0 l/m 0 min 0 min 0 W/m 0,0 km/h (0 Bft) 93,62 %
29.12.2016 01:10 -0,9 C -1,7 C -3,3 C 92 % 15 lf 1041,5 hPa 0,0 l/m 0 min 0 min 0 W/m 0,0 km/h (0 Bft) 97,87 %
29.12.2016 01:12 -1,0 C -1,7 C -3,3 C 92 % 15 lf 1041,6 hPa 0,0 l/m 0 min 0 min 0 W/m 0,0 km/h (0 Bft) 95,65 %
29.12.2016 01:14 -1,0 C -2,2 C -3,3 C 92 % 15 lf 1041,6 hPa 0,0 l/m 0 min 0 min 0 W/m 0,0 km/h (0 Bft) 91,49 %
29.12.2016 01:16 -1,0 C -2,2 C -3,3 C 92 % 15 lf 1041,5 hPa 0,0 l/m 0 min 0 min 0 W/m 0,0 km/h (0 Bft) 93,62 %
29.12.2016 01:18 -1,1 C -2,2 C -3,3 C 92 % 15 lf 1041,5 hPa 0,0 l/m 0 min 0 min 0 W/m 0,0 km/h (0 Bft) 97,87 %
29.12.2016 01:20 -1,1 C -2,2 C -3,3 C 92 % 15 lf 1041,5 hPa 0,0 l/m 0 min 0 min 0 W/m 0,0 km/h (0 Bft) 97,87 %
29.12.2016 01:22 -1,1 C -2,8 C -3,3 C 92 % 15 lf 1041,4 hPa 0,0 l/m 0 min 0 min 0 W/m 0,0 km/h (0 Bft) 97,83 %
29.12.2016 01:24 -1,1 C -2,8 C -3,9 C 92 % 15 lf 1041,4 hPa 0,0 l/m 0 min 0 min 0 W/m 0,0 km/h (0 Bft) 97,87 %
29.12.2016 01:26 -1,1 C -2,8 C -3,3 C 92 % 15 lf 1041,5 hPa 0,0 l/m 0 min 0 min 0 W/m 0,0 km/h (0 Bft) 91,49 %
29.12.2016 01:28 -1,1 C -2,8 C -3,3 C 92 % 15 lf 1041,4 hPa 0,0 l/m 0 min 0 min 0 W/m 0,0 km/h (0 Bft) 97,87 %
29.12.2016 01:30 -1,2 C -2,8 C -3,3 C 92 % 15 lf 1041,4 hPa 0,0 l/m 0 min 0 min 0 W/m 0,0 km/h (0 Bft) 95,74 %
29.12.2016 01:32 -1,2 C -2,8 C -3,9 C 92 % 15 lf 1041,4 hPa 0,0 l/m 0 min 0 min 0 W/m 0,0 km/h (0 Bft) 95,74 %
29.12.2016 01:34 -1,2 C -2,8 C -3,9 C 92 % 15 lf 1041,4 hPa 0,0 l/m 0 min 0 min 0 W/m 0,0 km/h (0 Bft) 97,83 %
29.12.2016 01:36 -1,2 C -2,8 C -3,9 C 92 % 15 lf 1041,4 hPa 0,0 l/m 0 min 0 min 0 W/m 0,0 km/h (0 Bft) 94,87 %
29.12.2016 01:38 -1,2 C -2,8 C -3,9 C 92 % 15 lf 1041,3 hPa 0,0 l/m 0 min 0 min 0 W/m 0,0 km/h (0 Bft) 95,65 %
29.12.2016 01:40 -1,3 C -2,8 C -3,9 C 92 % 15 lf 1041,4 hPa 0,0 l/m 0 min 0 min 0 W/m 0,0 km/h (0 Bft) 100,00 %
29.12.2016 01:42 -1,3 C -2,8 C -3,9 C 92 % 15 lf 1041,3 hPa 0,0 l/m 0 min 0 min 0 W/m 0,0 km/h (0 Bft) 93,62 %
29.12.2016 01:44 -1,3 C -2,8 C -3,9 C 92 % 15 lf 1041,3 hPa 0,0 l/m 0 min 0 min 0 W/m 0,0 km/h (0 Bft) 100,00 %
29.12.2016 01:46 -1,3 C -2,8 C -3,9 C 92 % 15 lf 1041,3 hPa 0,0 l/m 0 min 0 min 0 W/m 0,0 km/h (0 Bft) 100,00 %
29.12.2016 01:48 -1,3 C -2,2 C -3,9 C 92 % 15 lf 1041,3 hPa 0,0 l/m 0 min 0 min 5 W/m 0,0 km/h (0 Bft) 97,87 %
29.12.2016 01:50 -1,3 C -2,2 C -3,9 C 92 % 15 lf 1041,3 hPa 0,0 l/m 0 min 0 min 0 W/m 0,0 km/h (0 Bft) 100,00 %
29.12.2016 01:52 -1,4 C -2,8 C -3,9 C 92 % 15 lf 1041,2 hPa 0,0 l/m 0 min 0 min 0 W/m 0,0 km/h (0 Bft) 100,00 %
29.12.2016 01:54 -1,4 C -2,8 C -3,9 C 92 % 15 lf 1041,3 hPa 0,0 l/m 0 min 0 min 0 W/m 0,0 km/h (0 Bft) 100,00 %
29.12.2016 01:56 -1,4 C -2,8 C -3,9 C 92 % 15 lf 1041,3 hPa 0,0 l/m 0 min 0 min 5 W/m 0,0 km/h (0 Bft) 97,87 %
29.12.2016 01:58 -1,4 C -2,8 C -3,9 C 92 % 15 lf 1041,3 hPa 0,0 l/m 0 min 0 min 5 W/m 0,0 km/h (0 Bft) 97,87 %
29.12.2016 02:00 -1,4 C -2,2 C -3,9 C 92 % 15 lf 1041,3 hPa 0,0 l/m 0 min 0 min 0 W/m 0,0 km/h (0 Bft) 100,00 %
29.12.2016 02:02 -1,5 C -2,2 C -3,9 C 92 % 15 lf 1041,3 hPa 0,0 l/m 0 min 0 min 0 W/m 0,0 km/h (0 Bft) 97,87 %
29.12.2016 02:04 -1,5 C -1,7 C -3,9 C 92 % 15 lf 1041,3 hPa 0,0 l/m 0 min 0 min 0 W/m 0,0 km/h (0 Bft) 100,00 %
29.12.2016 02:06 -1,5 C -1,7 C -3,9 C 92 % 15 lf 1041,3 hPa 0,0 l/m 0 min 0 min 5 W/m 0,0 km/h (0 Bft) 100,00 %
29.12.2016 02:08 -1,6 C -1,7 C -3,9 C 93 % 15 lf 1041,2 hPa 0,0 l/m 0 min 0 min 5 W/m 0,0 km/h (0 Bft) 95,74 %
29.12.2016 02:10 -1,6 C -1,7 C -3,9 C 93 % 15 lf 1041,2 hPa 0,0 l/m 0 min 0 min 5 W/m 0,0 km/h (0 Bft) 97,87 %
29.12.2016 02:12 -1,6 C -1,7 C -3,9 C 93 % 15 lf 1041,3 hPa 0,0 l/m 0 min 0 min 5 W/m 0,0 km/h (0 Bft) 97,83 %
29.12.2016 02:14 -1,6 C -1,7 C -3,9 C 93 % 15 lf 1041,3 hPa 0,0 l/m 0 min 0 min 5 W/m 0,0 km/h (0 Bft) 97,87 %
29.12.2016 02:16 -1,6 C -1,7 C -3,9 C 93 % 15 lf 1041,2 hPa 0,0 l/m 0 min 0 min 5 W/m 0,0 km/h (0 Bft) 100,00 %
29.12.2016 02:18 -1,6 C -2,2 C -3,9 C 93 % 15 lf 1041,2 hPa 0,0 l/m 0 min 0 min 5 W/m 0,0 km/h (0 Bft) 95,74 %
29.12.2016 02:20 -1,6 C -2,2 C -3,9 C 93 % 15 lf 1041,3 hPa 0,0 l/m 0 min 0 min 5 W/m 0,0 km/h (0 Bft) 97,87 %
29.12.2016 02:22 -1,6 C -1,7 C -3,9 C 93 % 15 lf 1041,2 hPa 0,0 l/m 0 min 0 min 0 W/m 0,0 km/h (0 Bft) 95,65 %
29.12.2016 02:24 -1,6 C -1,7 C -3,9 C 93 % 15 lf 1041,1 hPa 0,0 l/m 0 min 0 min 5 W/m 0,0 km/h (0 Bft) 93,62 %
29.12.2016 02:26 -1,6 C -1,7 C -3,9 C 93 % 15 lf 1041,2 hPa 0,0 l/m 0 min 0 min 5 W/m 0,0 km/h (0 Bft) 93,62 %
29.12.2016 02:28 -1,6 C -1,7 C -3,9 C 93 % 15 lf 1041,2 hPa 0,0 l/m 0 min 0 min 5 W/m 0,0 km/h (0 Bft) 93,62 %
29.12.2016 02:30 -1,6 C -2,2 C -3,9 C 93 % 15 lf 1041,2 hPa 0,0 l/m 0 min 0 min 5 W/m 0,0 km/h (0 Bft) 89,36 %
29.12.2016 02:32 -1,6 C -2,2 C -3,9 C 93 % 15 lf 1041,2 hPa 0,0 l/m 0 min 0 min 5 W/m 0,0 km/h (0 Bft) 91,49 %
29.12.2016 02:34 -1,6 C -2,2 C -3,9 C 93 % 15 lf 1041,1 hPa 0,0 l/m 0 min 0 min 5 W/m 0,0 km/h (0 Bft) 89,13 %
29.12.2016 02:36 -1,6 C -2,2 C -3,9 C 93 % 15 lf 1041,1 hPa 0,0 l/m 0 min 0 min 5 W/m 0,0 km/h (0 Bft) 94,00 %
29.12.2016 02:38 -1,6 C -2,2 C -3,9 C 93 % 15 lf 1041,1 hPa 0,0 l/m 0 min 0 min 5 W/m 0,0 km/h (0 Bft) 93,62 %
29.12.2016 02:40 -1,6 C -2,2 C -3,9 C 93 % 15 lf 1041,1 hPa 0,0 l/m 0 min 0 min 5 W/m 0,0 km/h (0 Bft) 91,49 %
29.12.2016 02:42 -1,6 C -2,2 C -3,9 C 93 % 15 lf 1041,1 hPa 0,0 l/m 0 min 0 min 5 W/m 0,0 km/h (0 Bft) 91,49 %
29.12.2016 02:44 -1,6 C -2,2 C -3,9 C 93 % 15 lf 1041,1 hPa 0,0 l/m 0 min 0 min 5 W/m 0,0 km/h (0 Bft) 91,49 %
29.12.2016 02:46 -1,6 C -1,7 C -3,9 C 93 % 15 lf 1041,1 hPa 0,0 l/m 0 min 0 min 0 W/m 0,0 km/h (0 Bft) 93,48 %
29.12.2016 02:48 -1,6 C -2,2 C -3,9 C 93 % 15 lf 1041,1 hPa 0,0 l/m 0 min 0 min 0 W/m 0,0 km/h (0 Bft) 93,62 %
29.12.2016 02:50 -1,6 C -2,2 C -3,9 C 93 % 15 lf 1041,0 hPa 0,0 l/m 0 min 0 min 0 W/m 0,0 km/h (0 Bft) 95,74 %
29.12.2016 02:52 -1,6 C -2,2 C -3,9 C 93 % 15 lf 1041,0 hPa 0,0 l/m 0 min 0 min 0 W/m 0,0 km/h (0 Bft) 89,36 %
29.12.2016 02:54 -1,7 C -2,2 C -3,9 C 93 % 15 lf 1041,0 hPa 0,0 l/m 0 min 0 min 0 W/m 0,0 km/h (0 Bft) 93,62 %
29.12.2016 02:56 -1,7 C -2,8 C -3,9 C 93 % 15 lf 1041,0 hPa 0,0 l/m 0 min 0 min 0 W/m 0,0 km/h (0 Bft) 89,13 %
29.12.2016 02:58 -1,7 C -2,8 C -3,9 C 93 % 15 lf 1041,0 hPa 0,0 l/m 0 min 0 min 0 W/m 0,0 km/h (0 Bft) 87,23 %
29.12.2016 03:00 -1,7 C -3,3 C -4,4 C 93 % 15 lf 1040,9 hPa 0,0 l/m 0 min 0 min 0 W/m 0,0 km/h (0 Bft) 85,11 %
29.12.2016 03:02 -1,7 C -3,3 C -4,4 C 93 % 15 lf 1040,9 hPa 0,0 l/m 0 min 0 min 0 W/m 0,0 km/h (0 Bft) 91,49 %
29.12.2016 03:04 -1,7 C -3,3 C -4,4 C 93 % 15 lf 1040,9 hPa 0,0 l/m 0 min 0 min 0 W/m 0,0 km/h (0 Bft) 89,36 %
29.12.2016 03:06 -1,7 C -3,3 C -4,4 C 93 % 15 lf 1040,9 hPa 0,0 l/m 0 min 0 min 0 W/m 0,0 km/h (0 Bft) 90,00 %
29.12.2016 03:08 -1,8 C -3,3 C -4,4 C 93 % 15 lf 1040,9 hPa 0,0 l/m 0 min 0 min 0 W/m 0,0 km/h (0 Bft) 91,30 %
29.12.2016 03:10 -1,8 C -3,3 C -4,4 C 93 % 15 lf 1040,9 hPa 0,0 l/m 0 min 0 min 0 W/m 0,0 km/h (0 Bft) 93,62 %
29.12.2016 03:12 -1,8 C -3,3 C -4,4 C 94 % 15 lf 1040,8 hPa 0,0 l/m 0 min 0 min 0 W/m 0,0 km/h (0 Bft) 93,62 %
29.12.2016 03:14 -1,8 C -3,3 C -4,4 C 94 % 15 lf 1040,8 hPa 0,0 l/m 0 min 0 min 0 W/m 0,0 km/h (0 Bft) 91,49 %
29.12.2016 03:16 -1,8 C -2,8 C -4,4 C 94 % 15 lf 1040,8 hPa 0,0 l/m 0 min 0 min 0 W/m 0,0 km/h (0 Bft) 93,62 %
29.12.2016 03:18 -1,8 C -3,3 C -4,4 C 94 % 3 lf 1040,8 hPa 0,0 l/m 0 min 0 min 0 W/m 0,0 km/h (0 Bft) 93,48 %
29.12.2016 03:20 -1,9 C -3,3 C -4,4 C 94 % 1 lf 1040,8 hPa 0,0 l/m 0 min 0 min 0 W/m 0,0 km/h (0 Bft) 95,74 %
29.12.2016 03:22 -1,9 C -3,3 C -4,4 C 94 % 1 lf 1040,8 hPa 0,0 l/m 0 min 0 min 0 W/m 0,0 km/h (0 Bft) 95,74 %
29.12.2016 03:24 -1,9 C -3,3 C -4,4 C 94 % 1 lf 1040,8 hPa 0,0 l/m 0 min 0 min 0 W/m 0,0 km/h (0 Bft) 93,62 %
29.12.2016 03:26 -1,9 C -3,3 C -4,4 C 94 % 1 lf 1040,7 hPa 0,0 l/m 0 min 0 min 5 W/m 0,0 km/h (0 Bft) 95,74 %
29.12.2016 03:28 -1,9 C -2,8 C -4,4 C 94 % 1 lf 1040,7 hPa 0,0 l/m 0 min 0 min 5 W/m 0,0 km/h (0 Bft) 97,87 %
29.12.2016 03:30 -2,0 C -3,3 C -4,4 C 94 % 1 lf 1040,7 hPa 0,0 l/m 0 min 0 min 5 W/m 0,0 km/h (0 Bft) 97,87 %
29.12.2016 03:32 -2,0 C -3,3 C -4,4 C 94 % 1 lf 1040,7 hPa 0,0 l/m 0 min 0 min 5 W/m 0,0 km/h (0 Bft) 93,48 %
29.12.2016 03:34 -2,0 C -3,3 C -4,4 C 94 % 1 lf 1040,7 hPa 0,0 l/m 0 min 0 min 5 W/m 0,0 km/h (0 Bft) 97,87 %
29.12.2016 03:36 -2,1 C -3,9 C -4,4 C 94 % 1 lf 1040,6 hPa 0,0 l/m 0 min 0 min 5 W/m 0,0 km/h (0 Bft) 97,37 %
29.12.2016 03:38 -2,1 C -3,3 C -4,4 C 94 % 1 lf 1040,6 hPa 0,0 l/m 0 min 0 min 5 W/m 0,0 km/h (0 Bft) 95,74 %
29.12.2016 03:40 -2,1 C -3,9 C -4,4 C 94 % 1 lf 1040,6 hPa 0,0 l/m 0 min 0 min 5 W/m 0,0 km/h (0 Bft) 97,87 %
29.12.2016 03:42 -2,1 C -3,9 C -4,4 C 94 % 1 lf 1040,6 hPa 0,0 l/m 0 min 0 min 5 W/m 0,0 km/h (0 Bft) 97,87 %
29.12.2016 03:44 -2,1 C -3,9 C -4,4 C 94 % 1 lf 1040,6 hPa 0,0 l/m 0 min 0 min 5 W/m 0,0 km/h (0 Bft) 100,00 %
29.12.2016 03:46 -2,1 C -3,9 C -4,4 C 94 % 1 lf 1040,5 hPa 0,0 l/m 0 min 0 min 5 W/m 0,0 km/h (0 Bft) 95,65 %
29.12.2016 03:48 -2,2 C -3,3 C -4,4 C 94 % 1 lf 1040,5 hPa 0,0 l/m 0 min 0 min 5 W/m 0,0 km/h (0 Bft) 100,00 %
29.12.2016 03:50 -2,2 C -3,3 C -4,4 C 94 % 1 lf 1040,4 hPa 0,0 l/m 0 min 0 min 5 W/m 0,0 km/h (0 Bft) 100,00 %
29.12.2016 03:52 -2,2 C -3,3 C -4,4 C 94 % 1 lf 1040,5 hPa 0,0 l/m 0 min 0 min 5 W/m 0,0 km/h (0 Bft) 100,00 %
29.12.2016 03:54 -2,2 C -3,3 C -4,4 C 94 % 1 lf 1040,4 hPa 0,0 l/m 0 min 0 min 5 W/m 0,0 km/h (0 Bft) 97,87 %
29.12.2016 03:56 -2,2 C -3,3 C -4,4 C 94 % 1 lf 1040,4 hPa 0,0 l/m 0 min 0 min 5 W/m 0,0 km/h (0 Bft) 95,65 %
29.12.2016 03:58 -2,2 C -3,3 C -4,4 C 94 % 1 lf 1040,3 hPa 0,0 l/m 0 min 0 min 5 W/m 0,0 km/h (0 Bft) 97,87 %
29.12.2016 04:00 -2,2 C -3,3 C -4,4 C 94 % 1 lf 1040,3 hPa 0,0 l/m 0 min 0 min 5 W/m 0,0 km/h (0 Bft) 100,00 %
29.12.2016 04:02 -2,3 C -3,3 C -4,4 C 94 % 1 lf 1040,3 hPa 0,0 l/m 0 min 0 min 5 W/m 0,0 km/h (0 Bft) 96,00 %
29.12.2016 04:04 -2,3 C -3,3 C -4,4 C 94 % 1 lf 1040,3 hPa 0,0 l/m 0 min 0 min 5 W/m 0,0 km/h (0 Bft) 95,74 %
29.12.2016 04:06 -2,3 C -3,3 C -4,4 C 94 % 1 lf 1040,4 hPa 0,0 l/m 0 min 0 min 3 W/m 0,0 km/h (0 Bft) 92,00 %
29.12.2016 04:08 -2,3 C -3,3 C -4,4 C 94 % 1 lf 1040,4 hPa 0,0 l/m 0 min 0 min 0 W/m 0,0 km/h (0 Bft) 93,33 %
29.12.2016 04:10 -2,3 C -3,3 C -4,4 C 94 % 1 lf 1040,3 hPa 0,0 l/m 0 min 0 min 0 W/m 0,0 km/h (0 Bft) 100,00 %
29.12.2016 04:12 -2,3 C -3,9 C -4,4 C 94 % 1 lf 1040,3 hPa 0,0 l/m 0 min 0 min 0 W/m 0,0 km/h (0 Bft) 97,87 %
29.12.2016 04:14 -2,4 C -3,3 C -4,4 C 94 % 1 lf 1040,3 hPa 0,0 l/m 0 min 0 min 5 W/m 0,0 km/h (0 Bft) 97,87 %
29.12.2016 04:16 -2,4 C -3,9 C -4,4 C 94 % 1 lf 1040,3 hPa 0,0 l/m 0 min 0 min 5 W/m 0,0 km/h (0 Bft) 95,74 %
29.12.2016 04:18 -2,4 C -3,9 C -4,4 C 94 % 1 lf 1040,3 hPa 0,0 l/m 0 min 0 min 5 W/m 0,0 km/h (0 Bft) 97,83 %
29.12.2016 04:20 -2,4 C -3,9 C -4,4 C 94 % 1 lf 1040,3 hPa 0,0 l/m 0 min 0 min 0 W/m 0,0 km/h (0 Bft) 100,00 %
29.12.2016 04:22 -2,4 C -3,9 C -4,4 C 94 % 1 lf 1040,4 hPa 0,0 l/m 0 min 0 min 0 W/m 0,0 km/h (0 Bft) 97,87 %
29.12.2016 04:24 -2,4 C -3,9 C -4,4 C 94 % 1 lf 1040,3 hPa 0,0 l/m 0 min 0 min 0 W/m 0,0 km/h (0 Bft) 100,00 %
29.12.2016 04:26 -2,5 C -3,3 C -4,4 C 94 % 1 lf 1040,3 hPa 0,0 l/m 0 min 0 min 0 W/m 0,0 km/h (0 Bft) 100,00 %
29.12.2016 04:28 -2,5 C -3,3 C -4,4 C 94 % 1 lf 1040,4 hPa 0,0 l/m 0 min 0 min 0 W/m 0,0 km/h (0 Bft) 100,00 %
29.12.2016 04:30 -2,5 C -3,9 C -4,4 C 94 % 1 lf 1040,4 hPa 0,0 l/m 0 min 0 min 0 W/m 0,0 km/h (0 Bft) 100,00 %
29.12.2016 04:32 -2,6 C -3,9 C -4,4 C 94 % 1 lf 1040,3 hPa 0,0 l/m 0 min 0 min 0 W/m 0,0 km/h (0 Bft) 100,00 %
29.12.2016 04:34 -2,6 C -3,3 C -4,4 C 94 % 1 lf 1040,4 hPa 0,0 l/m 0 min 0 min 0 W/m 0,0 km/h (0 Bft) 95,74 %
29.12.2016 04:36 -2,6 C -3,3 C -4,4 C 94 % 1 lf 1040,4 hPa 0,0 l/m 0 min 0 min 0 W/m 0,0 km/h (0 Bft) 95,92 %
29.12.2016 04:38 -2,6 C -3,3 C -4,4 C 94 % 1 lf 1040,3 hPa 0,0 l/m 0 min 0 min 0 W/m 0,0 km/h (0 Bft) 97,87 %
29.12.2016 04:40 -2,6 C -3,3 C -4,4 C 94 % 1 lf 1040,4 hPa 0,0 l/m 0 min 0 min 0 W/m 0,0 km/h (0 Bft) 100,00 %
29.12.2016 04:42 -2,6 C -3,3 C -4,4 C 94 % 1 lf 1040,3 hPa 0,0 l/m 0 min 0 min 0 W/m 0,0 km/h (0 Bft) 100,00 %
29.12.2016 04:44 -2,7 C -3,3 C -4,4 C 94 % 1 lf 1040,3 hPa 0,0 l/m 0 min 0 min 0 W/m 0,0 km/h (0 Bft) 95,74 %
29.12.2016 04:46 -2,7 C -3,3 C -4,4 C 94 % 1 lf 1040,2 hPa 0,0 l/m 0 min 0 min 0 W/m 6,3 km/h (2 Bft) 97,87 %
29.12.2016 04:48 -2,7 C -3,3 C -4,4 C 94 % 1 lf 1040,2 hPa 0,0 l/m 0 min 0 min 0 W/m 6,3 km/h (2 Bft) 91,49 %
29.12.2016 04:50 -2,7 C -2,8 C -4,4 C 94 % 1 lf 1040,2 hPa 0,0 l/m 0 min 0 min 0 W/m 6,3 km/h (2 Bft) 91,49 %
29.12.2016 04:52 -2,7 C -2,8 C -4,4 C 94 % 1 lf 1040,2 hPa 0,0 l/m 0 min 0 min 0 W/m 4,2 km/h (1 Bft) 95,74 %
29.12.2016 04:54 -2,7 C -2,2 C -4,4 C 94 % 1 lf 1040,2 hPa 0,0 l/m 0 min 0 min 0 W/m 4,2 km/h (1 Bft) 89,13 %
29.12.2016 04:56 -2,7 C -2,2 C -4,4 C 94 % 1 lf 1040,1 hPa 0,0 l/m 0 min 0 min 0 W/m 4,2 km/h (1 Bft) 91,49 %
29.12.2016 04:58 -2,8 C -2,8 C -4,4 C 94 % 1 lf 1040,1 hPa 0,0 l/m 0 min 0 min 0 W/m 4,2 km/h (1 Bft) 93,62 %
29.12.2016 05:00 -2,8 C -2,8 C -4,4 C 94 % 1 lf 1040,1 hPa 0,0 l/m 0 min 0 min 0 W/m 2,1 km/h (1 Bft) 93,62 %
29.12.2016 05:02 -2,8 C -2,8 C -4,4 C 94 % 1 lf 1040,1 hPa 0,0 l/m 0 min 0 min 0 W/m 2,1 km/h (1 Bft) 95,74 %
29.12.2016 05:04 -2,8 C -2,8 C -4,4 C 94 % 1 lf 1040,1 hPa 0,0 l/m 0 min 0 min 0 W/m 2,1 km/h (1 Bft) 91,49 %
29.12.2016 05:06 -2,8 C -2,8 C -4,4 C 94 % 1 lf 1040,0 hPa 0,0 l/m 0 min 0 min 0 W/m 0,0 km/h (0 Bft) 88,57 %
29.12.2016 05:08 -2,8 C -2,8 C -4,4 C 94 % 1 lf 1040,0 hPa 0,0 l/m 0 min 0 min 0 W/m 0,0 km/h (0 Bft) 91,30 %
29.12.2016 05:10 -2,8 C -2,8 C -4,4 C 94 % 1 lf 1040,0 hPa 0,0 l/m 0 min 0 min 0 W/m 2,1 km/h (1 Bft) 95,74 %
29.12.2016 05:12 -2,8 C -2,8 C -4,4 C 94 % 1 lf 1039,9 hPa 0,0 l/m 0 min 0 min 0 W/m 2,1 km/h (1 Bft) 91,49 %
29.12.2016 05:14 -2,7 C -3,3 C -4,4 C 94 % 1 lf 1039,9 hPa 0,0 l/m 0 min 0 min 0 W/m 2,1 km/h (1 Bft) 97,87 %
29.12.2016 05:16 -2,7 C -3,3 C -4,4 C 94 % 1 lf 1040,0 hPa 0,0 l/m 0 min 0 min 0 W/m 0,0 km/h (0 Bft) 97,87 %
29.12.2016 05:18 -2,7 C -3,9 C -5,0 C 94 % 1 lf 1039,9 hPa 0,0 l/m 0 min 0 min 0 W/m 0,0 km/h (0 Bft) 95,74 %
29.12.2016 05:20 -2,7 C -3,3 C -5,0 C 94 % 1 lf 1039,9 hPa 0,0 l/m 0 min 0 min 0 W/m 0,0 km/h (0 Bft) 97,83 %
29.12.2016 05:22 -2,7 C -3,9 C -5,0 C 94 % 1 lf 1039,9 hPa 0,0 l/m 0 min 0 min 0 W/m 0,0 km/h (0 Bft) 93,62 %
29.12.2016 05:24 -2,7 C -3,9 C -5,0 C 94 % 1 lf 1039,9 hPa 0,0 l/m 0 min 0 min 0 W/m 0,0 km/h (0 Bft) 95,74 %
29.12.2016 05:26 -2,8 C -3,9 C -5,0 C 94 % 1 lf 1039,8 hPa 0,0 l/m 0 min 0 min 0 W/m 0,0 km/h (0 Bft) 95,74 %
29.12.2016 05:28 -2,7 C -3,9 C -5,0 C 94 % 1 lf 1039,8 hPa 0,0 l/m 0 min 0 min 0 W/m 0,0 km/h (0 Bft) 97,87 %
29.12.2016 05:30 -2,7 C -3,9 C -5,0 C 94 % 1 lf 1039,8 hPa 0,0 l/m 0 min 0 min 0 W/m 0,0 km/h (0 Bft) 95,74 %
29.12.2016 05:32 -2,8 C -3,9 C -5,0 C 94 % 1 lf 1039,8 hPa 0,0 l/m 0 min 0 min 0 W/m 0,0 km/h (0 Bft) 100,00 %
29.12.2016 05:34 -2,8 C -3,3 C -5,0 C 94 % 1 lf 1039,8 hPa 0,0 l/m 0 min 0 min 0 W/m 0,0 km/h (0 Bft) 97,87 %
29.12.2016 05:36 -2,8 C -3,3 C -5,0 C 94 % 1 lf 1039,8 hPa 0,0 l/m 0 min 0 min 0 W/m 0,0 km/h (0 Bft) 94,92 %
29.12.2016 05:38 -2,8 C -3,3 C -5,0 C 94 % 1 lf 1039,8 hPa 0,0 l/m 0 min 0 min 0 W/m 0,0 km/h (0 Bft) 95,74 %
29.12.2016 05:40 -2,8 C -3,9 C -5,0 C 94 % 1 lf 1039,8 hPa 0,0 l/m 0 min 0 min 0 W/m 0,0 km/h (0 Bft) 89,13 %
29.12.2016 05:42 -2,8 C -3,9 C -5,0 C 94 % 1 lf 1039,7 hPa 0,0 l/m 0 min 0 min 0 W/m 0,0 km/h (0 Bft) 95,74 %
29.12.2016 05:44 -2,8 C -3,3 C -5,0 C 94 % 1 lf 1039,8 hPa 0,0 l/m 0 min 0 min 0 W/m 4,2 km/h (1 Bft) 97,87 %
29.12.2016 05:46 -2,8 C -3,3 C -5,0 C 94 % 1 lf 1039,7 hPa 0,0 l/m 0 min 0 min 0 W/m 6,3 km/h (2 Bft) 95,74 %
29.12.2016 05:48 -2,8 C -3,3 C -5,0 C 94 % 1 lf 1039,8 hPa 0,0 l/m 0 min 0 min 0 W/m 6,3 km/h (2 Bft) 97,87 %
29.12.2016 05:50 -2,8 C -2,8 C -4,4 C 94 % 1 lf 1039,7 hPa 0,0 l/m 0 min 0 min 0 W/m 10,5 km/h (2 Bft) 95,74 %
29.12.2016 05:52 -2,8 C -2,2 C -4,4 C 95 % 1 lf 1039,8 hPa 0,0 l/m 0 min 0 min 0 W/m 10,5 km/h (2 Bft) 95,65 %
29.12.2016 05:54 -2,8 C -2,8 C -4,4 C 95 % 1 lf 1039,8 hPa 0,0 l/m 0 min 0 min 0 W/m 10,5 km/h (2 Bft) 95,74 %
29.12.2016 05:56 -2,8 C -2,2 C -4,4 C 95 % 1 lf 1039,8 hPa 0,0 l/m 0 min 0 min 0 W/m 10,5 km/h (2 Bft) 95,74 %
29.12.2016 05:58 -2,8 C -2,8 C -4,4 C 95 % 1 lf 1039,8 hPa 0,0 l/m 0 min 0 min 0 W/m 10,5 km/h (2 Bft) 97,87 %
29.12.2016 06:00 -2,8 C -2,2 C -4,4 C 95 % 1 lf 1039,9 hPa 0,0 l/m 0 min 0 min 0 W/m 8,4 km/h (2 Bft) 97,87 %
29.12.2016 06:02 -2,7 C -2,2 C -4,4 C 95 % 1 lf 1039,9 hPa 0,0 l/m 0 min 0 min 0 W/m 10,5 km/h (2 Bft) 93,62 %
29.12.2016 06:06 -2,7 C -2,2 C -4,4 C 95 % 1 lf 1039,8 hPa 0,0 l/m 0 min 0 min 0 W/m 8,4 km/h (2 Bft) 96,77 %
29.12.2016 06:08 -2,6 C -2,2 C -3,9 C 95 % 1 lf 1039,8 hPa 0,0 l/m 0 min 0 min 0 W/m 8,4 km/h (2 Bft) 95,74 %
29.12.2016 06:10 -2,6 C -2,2 C -3,9 C 95 % 1 lf 1039,9 hPa 0,0 l/m 0 min 0 min 0 W/m 6,3 km/h (2 Bft) 91,49 %
29.12.2016 06:12 -2,6 C -2,2 C -3,9 C 95 % 1 lf 1039,8 hPa 0,0 l/m 0 min 0 min 0 W/m 6,3 km/h (2 Bft) 97,87 %
29.12.2016 06:14 -2,6 C -2,2 C -4,4 C 95 % 1 lf 1039,8 hPa 0,0 l/m 0 min 0 min 0 W/m 4,2 km/h (1 Bft) 97,87 %
29.12.2016 06:16 -2,5 C -2,2 C -4,4 C 95 % 1 lf 1039,9 hPa 0,0 l/m 0 min 0 min 0 W/m 4,2 km/h (1 Bft) 97,83 %
29.12.2016 06:18 -2,5 C -2,2 C -4,4 C 95 % 1 lf 1039,9 hPa 0,0 l/m 0 min 0 min 0 W/m 4,2 km/h (1 Bft) 97,87 %
29.12.2016 06:20 -2,4 C -2,2 C -4,4 C 95 % 1 lf 1039,9 hPa 0,0 l/m 0 min 0 min 0 W/m 4,2 km/h (1 Bft) 97,87 %
29.12.2016 06:22 -2,4 C -2,2 C -4,4 C 95 % 1 lf 1039,9 hPa 0,0 l/m 0 min 0 min 0 W/m 4,2 km/h (1 Bft) 97,87 %
29.12.2016 06:24 -2,4 C -2,2 C -4,4 C 95 % 1 lf 1039,9 hPa 0,0 l/m 0 min 0 min 0 W/m 4,2 km/h (1 Bft) 87,23 %
29.12.2016 06:26 -2,3 C -2,2 C -4,4 C 95 % 1 lf 1039,9 hPa 0,0 l/m 0 min 0 min 0 W/m 6,3 km/h (2 Bft) 91,30 %
29.12.2016 06:28 -2,3 C -2,2 C -4,4 C 95 % 1 lf 1039,9 hPa 0,0 l/m 0 min 0 min 0 W/m 6,3 km/h (2 Bft) 97,87 %
29.12.2016 06:30 -2,3 C -2,2 C -4,4 C 95 % 1 lf 1039,9 hPa 0,0 l/m 0 min 0 min 0 W/m 2,1 km/h (1 Bft) 100,00 %
29.12.2016 06:32 -2,3 C -2,2 C -4,4 C 95 % 1 lf 1039,9 hPa 0,0 l/m 0 min 0 min 0 W/m 0,0 km/h (0 Bft) 97,87 %
29.12.2016 06:34 -2,3 C -2,2 C -4,4 C 95 % 1 lf 1039,9 hPa 0,0 l/m 0 min 0 min 0 W/m 4,2 km/h (1 Bft) 93,62 %
29.12.2016 06:36 -2,3 C -2,2 C -4,4 C 95 % 1 lf 1040,0 hPa 0,0 l/m 0 min 0 min 0 W/m 4,2 km/h (1 Bft) 97,14 %
29.12.2016 06:38 -2,2 C -2,2 C -4,4 C 95 % 1 lf 1040,0 hPa 0,0 l/m 0 min 0 min 0 W/m 2,1 km/h (1 Bft) 91,49 %
29.12.2016 06:40 -2,2 C -2,8 C -4,4 C 95 % 1 lf 1040,0 hPa 0,0 l/m 0 min 0 min 0 W/m 4,2 km/h (1 Bft) 97,87 %
29.12.2016 06:42 -2,2 C -2,8 C -4,4 C 95 % 1 lf 1040,0 hPa 0,0 l/m 0 min 0 min 0 W/m 2,1 km/h (1 Bft) 95,65 %
29.12.2016 06:44 -2,2 C -3,3 C -4,4 C 95 % 1 lf 1040,0 hPa 0,0 l/m 0 min 0 min 0 W/m 2,1 km/h (1 Bft) 95,74 %
29.12.2016 06:46 -2,2 C -3,3 C -4,4 C 95 % 1 lf 1040,0 hPa 0,0 l/m 0 min 0 min 0 W/m 0,0 km/h (0 Bft) 95,74 %
29.12.2016 06:48 -2,2 C -3,3 C -4,4 C 95 % 1 lf 1040,0 hPa 0,0 l/m 0 min 0 min 0 W/m 0,0 km/h (0 Bft) 95,74 %
29.12.2016 06:50 -2,2 C -3,3 C -4,4 C 95 % 1 lf 1040,0 hPa 0,0 l/m 0 min 0 min 0 W/m 0,0 km/h (0 Bft) 93,62 %
29.12.2016 06:52 -2,2 C -3,3 C -5,0 C 95 % 1 lf 1040,0 hPa 0,0 l/m 0 min 0 min 0 W/m 0,0 km/h (0 Bft) 97,87 %
29.12.2016 06:54 -2,2 C -3,9 C -5,0 C 95 % 1 lf 1040,0 hPa 0,0 l/m 0 min 0 min 0 W/m 0,0 km/h (0 Bft) 95,65 %
29.12.2016 06:56 -2,2 C -3,9 C -5,0 C 95 % 1 lf 1040,1 hPa 0,0 l/m 0 min 0 min 0 W/m 0,0 km/h (0 Bft) 93,62 %
29.12.2016 06:58 -2,2 C -3,9 C -5,0 C 95 % 1 lf 1040,1 hPa 0,0 l/m 0 min 0 min 0 W/m 0,0 km/h (0 Bft) 97,87 %
29.12.2016 07:00 -2,2 C -3,9 C -5,0 C 95 % 1 lf 1040,1 hPa 0,0 l/m 0 min 0 min 0 W/m 0,0 km/h (0 Bft) 97,87 %
29.12.2016 07:02 -2,3 C -3,9 C -5,0 C 95 % 1 lf 1040,1 hPa 0,0 l/m 0 min 0 min 0 W/m 0,0 km/h (0 Bft) 93,62 %
29.12.2016 07:04 -2,3 C -3,9 C -5,0 C 95 % 1 lf 1040,1 hPa 0,0 l/m 0 min 0 min 0 W/m 0,0 km/h (0 Bft) 93,48 %
29.12.2016 07:06 -2,3 C -3,9 C -5,0 C 95 % 1 lf 1040,1 hPa 0,0 l/m 0 min 0 min 0 W/m 0,0 km/h (0 Bft) 100,00 %
29.12.2016 07:08 -2,3 C -3,9 C -5,0 C 95 % 1 lf 1040,1 hPa 0,0 l/m 0 min 0 min 0 W/m 0,0 km/h (0 Bft) 97,87 %
29.12.2016 07:10 -2,3 C -3,9 C -5,0 C 95 % 1 lf 1040,2 hPa 0,0 l/m 0 min 0 min 0 W/m 0,0 km/h (0 Bft) 97,87 %
29.12.2016 07:12 -2,3 C -3,9 C -5,0 C 95 % 1 lf 1040,2 hPa 0,0 l/m 0 min 0 min 0 W/m 0,0 km/h (0 Bft) 95,74 %
29.12.2016 07:14 -2,4 C -3,9 C -5,0 C 95 % 1 lf 1040,2 hPa 0,0 l/m 0 min 0 min 0 W/m 0,0 km/h (0 Bft) 93,48 %
29.12.2016 07:16 -2,4 C -3,9 C -5,0 C 95 % 1 lf 1040,1 hPa 0,0 l/m 0 min 0 min 0 W/m 0,0 km/h (0 Bft) 95,74 %
29.12.2016 07:18 -2,4 C -3,9 C -5,0 C 95 % 1 lf 1040,1 hPa 0,0 l/m 0 min 0 min 0 W/m 0,0 km/h (0 Bft) 95,74 %
29.12.2016 07:20 -2,4 C -3,9 C -5,0 C 95 % 1 lf 1040,0 hPa 0,0 l/m 0 min 0 min 0 W/m 0,0 km/h (0 Bft) 95,74 %
29.12.2016 07:22 -2,4 C -3,9 C -5,0 C 95 % 1 lf 1040,0 hPa 0,0 l/m 0 min 0 min 0 W/m 0,0 km/h (0 Bft) 95,74 %
29.12.2016 07:24 -2,4 C -3,9 C -5,0 C 95 % 1 lf 1040,1 hPa 0,0 l/m 0 min 0 min 0 W/m 0,0 km/h (0 Bft) 93,48 %
29.12.2016 07:26 -2,4 C -3,9 C -5,0 C 95 % 1 lf 1040,0 hPa 0,0 l/m 0 min 0 min 0 W/m 0,0 km/h (0 Bft) 93,62 %
29.12.2016 07:28 -2,5 C -3,9 C -5,0 C 95 % 1 lf 1040,1 hPa 0,0 l/m 0 min 0 min 0 W/m 0,0 km/h (0 Bft) 93,62 %
29.12.2016 07:30 -2,5 C -3,9 C -5,0 C 95 % 1 lf 1040,1 hPa 0,0 l/m 0 min 0 min 5 W/m 0,0 km/h (0 Bft) 95,74 %
29.12.2016 07:32 -2,5 C -3,9 C -5,0 C 95 % 1 lf 1040,1 hPa 0,0 l/m 0 min 0 min 5 W/m 0,0 km/h (0 Bft) 93,62 %
29.12.2016 07:34 -2,6 C -3,9 C -5,0 C 95 % 1 lf 1040,1 hPa 0,0 l/m 0 min 0 min 5 W/m 0,0 km/h (0 Bft) 95,74 %
29.12.2016 07:36 -2,6 C -3,9 C -5,0 C 95 % 1 lf 1040,1 hPa 0,0 l/m 0 min 0 min 5 W/m 0,0 km/h (0 Bft) 100,00 %
29.12.2016 07:38 -2,6 C -3,9 C -5,0 C 95 % 1 lf 1040,1 hPa 0,0 l/m 0 min 0 min 5 W/m 0,0 km/h (0 Bft) 91,49 %
29.12.2016 07:40 -2,6 C -3,9 C -5,0 C 95 % 1 lf 1040,1 hPa 0,0 l/m 0 min 0 min 5 W/m 0,0 km/h (0 Bft) 93,48 %
29.12.2016 07:42 -2,6 C -3,9 C -5,0 C 95 % 1 lf 1040,0 hPa 0,0 l/m 0 min 0 min 5 W/m 0,0 km/h (0 Bft) 91,49 %
29.12.2016 07:44 -2,6 C -3,9 C -5,0 C 95 % 1 lf 1040,0 hPa 0,0 l/m 0 min 0 min 5 W/m 0,0 km/h (0 Bft) 93,62 %
29.12.2016 07:46 -2,7 C -3,9 C -5,0 C 95 % 1 lf 1040,0 hPa 0,0 l/m 0 min 0 min 5 W/m 0,0 km/h (0 Bft) 93,62 %
29.12.2016 07:48 -2,7 C -3,9 C -5,0 C 95 % 1 lf 1040,0 hPa 0,0 l/m 0 min 0 min 5 W/m 0,0 km/h (0 Bft) 91,49 %
29.12.2016 07:50 -2,7 C -4,4 C -5,0 C 95 % 1 lf 1040,0 hPa 0,0 l/m 0 min 0 min 5 W/m 0,0 km/h (0 Bft) 95,74 %
29.12.2016 07:52 -2,7 C -4,4 C -5,0 C 95 % 1 lf 1040,0 hPa 0,0 l/m 0 min 0 min 5 W/m 0,0 km/h (0 Bft) 93,48 %
29.12.2016 07:54 -2,7 C -4,4 C -5,0 C 95 % 1 lf 1040,0 hPa 0,0 l/m 0 min 0 min 5 W/m 0,0 km/h (0 Bft) 95,74 %
29.12.2016 07:56 -2,7 C -4,4 C -5,0 C 95 % 1 lf 1040,0 hPa 0,0 l/m 0 min 0 min 5 W/m 0,0 km/h (0 Bft) 95,74 %
29.12.2016 07:58 -2,8 C -4,4 C -5,0 C 95 % 1 lf 1039,9 hPa 0,0 l/m 0 min 0 min 5 W/m 0,0 km/h (0 Bft) 95,74 %
29.12.2016 08:00 -2,8 C -4,4 C -5,0 C 95 % 1 lf 1039,9 hPa 0,0 l/m 0 min 0 min 5 W/m 0,0 km/h (0 Bft) 95,74 %
29.12.2016 08:02 -2,8 C -4,4 C -5,0 C 95 % 1 lf 1039,9 hPa 0,0 l/m 0 min 0 min 5 W/m 0,0 km/h (0 Bft) 95,65 %
29.12.2016 08:04 -2,8 C -4,4 C -5,6 C 95 % 1 lf 1040,0 hPa 0,0 l/m 0 min 0 min 5 W/m 0,0 km/h (0 Bft) 97,87 %
29.12.2016 08:06 -2,8 C -4,4 C -5,6 C 95 % 0 lf 1040,0 hPa 0,0 l/m 0 min 0 min 5 W/m 0,0 km/h (0 Bft) 98,15 %
29.12.2016 08:08 -2,8 C -4,4 C -5,6 C 95 % 1 lf 1040,0 hPa 0,0 l/m 0 min 0 min 5 W/m 0,0 km/h (0 Bft) 95,74 %
29.12.2016 08:10 -2,9 C -4,4 C -5,6 C 95 % 0 lf 1040,0 hPa 0,0 l/m 0 min 0 min 5 W/m 0,0 km/h (0 Bft) 95,74 %
29.12.2016 08:12 -2,9 C -4,4 C -5,6 C 95 % 0 lf 1040,0 hPa 0,0 l/m 0 min 0 min 5 W/m 0,0 km/h (0 Bft) 93,48 %
29.12.2016 08:14 -2,9 C -4,4 C -5,6 C 95 % 1 lf 1040,0 hPa 0,0 l/m 0 min 0 min 0 W/m 0,0 km/h (0 Bft) 97,87 %
29.12.2016 08:16 -2,9 C -4,4 C -5,6 C 95 % 1 lf 1040,0 hPa 0,0 l/m 0 min 0 min 0 W/m 0,0 km/h (0 Bft) 97,87 %
29.12.2016 08:18 -2,9 C -4,4 C -5,6 C 95 % 1 lf 1040,0 hPa 0,0 l/m 0 min 0 min 0 W/m 0,0 km/h (0 Bft) 98,00 %
29.12.2016 08:20 -3,0 C -4,4 C -5,0 C 95 % 1 lf 1040,0 hPa 0,0 l/m 0 min 0 min 0 W/m 0,0 km/h (0 Bft) 93,62 %
29.12.2016 08:22 -3,0 C -4,4 C -5,6 C 95 % 0 lf 1039,9 hPa 0,0 l/m 0 min 0 min 12 W/m 0,0 km/h (0 Bft) 95,74 %
29.12.2016 08:24 -3,1 C -4,4 C -5,6 C 95 % 0 lf 1039,9 hPa 0,0 l/m 0 min 0 min 12 W/m 0,0 km/h (0 Bft) 95,65 %
29.12.2016 08:26 -3,1 C -4,4 C -5,6 C 95 % 0 lf 1039,9 hPa 0,0 l/m 0 min 0 min 13 W/m 0,0 km/h (0 Bft) 95,74 %
29.12.2016 08:28 -3,1 C -4,4 C -5,6 C 95 % 0 lf 1039,9 hPa 0,0 l/m 0 min 0 min 14 W/m 0,0 km/h (0 Bft) 93,62 %
29.12.2016 08:30 -3,1 C -4,4 C -5,0 C 95 % 1 lf 1039,9 hPa 0,0 l/m 0 min 0 min 12 W/m 0,0 km/h (0 Bft) 91,49 %
29.12.2016 08:32 -3,1 C -4,4 C -5,6 C 95 % 0 lf 1039,9 hPa 0,0 l/m 0 min 0 min 12 W/m 0,0 km/h (0 Bft) 89,36 %
29.12.2016 08:34 -3,1 C -4,4 C -5,6 C 95 % 0 lf 1039,9 hPa 0,0 l/m 0 min 0 min 12 W/m 2,1 km/h (1 Bft) 95,74 %
29.12.2016 08:36 -3,2 C -4,4 C -5,6 C 95 % 0 lf 1039,9 hPa 0,0 l/m 0 min 0 min 12 W/m 0,0 km/h (0 Bft) 89,58 %
29.12.2016 08:38 -3,2 C -4,4 C -5,6 C 95 % 1 lf 1039,9 hPa 0,0 l/m 0 min 0 min 12 W/m 0,0 km/h (0 Bft) 93,62 %
29.12.2016 08:40 -3,2 C -4,4 C -5,6 C 95 % 0 lf 1039,9 hPa 0,0 l/m 0 min 0 min 12 W/m 0,0 km/h (0 Bft) 100,00 %
29.12.2016 08:42 -3,2 C -4,4 C -5,6 C 95 % 0 lf 1039,9 hPa 0,0 l/m 0 min 0 min 13 W/m 0,0 km/h (0 Bft) 93,62 %
29.12.2016 08:44 -3,2 C -4,4 C -5,6 C 95 % 0 lf 1039,9 hPa 0,0 l/m 0 min 0 min 14 W/m 0,0 km/h (0 Bft) 95,74 %
29.12.2016 08:46 -3,2 C -4,4 C -5,6 C 95 % 0 lf 1039,9 hPa 0,0 l/m 0 min 0 min 15 W/m 0,0 km/h (0 Bft) 93,48 %
29.12.2016 08:48 -3,3 C -4,4 C -5,6 C 95 % 0 lf 1040,0 hPa 0,0 l/m 0 min 0 min 15 W/m 0,0 km/h (0 Bft) 87,23 %
29.12.2016 08:50 -3,3 C -4,4 C -5,6 C 95 % 0 lf 1039,9 hPa 0,0 l/m 0 min 0 min 16 W/m 0,0 km/h (0 Bft) 95,74 %
29.12.2016 08:52 -3,3 C -4,4 C -5,6 C 95 % 0 lf 1039,9 hPa 0,0 l/m 0 min 0 min 17 W/m 0,0 km/h (0 Bft) 95,74 %
29.12.2016 08:54 -3,3 C -4,4 C -5,6 C 95 % 0 lf 1040,0 hPa 0,0 l/m 0 min 0 min 18 W/m 2,1 km/h (1 Bft) 93,62 %
29.12.2016 08:56 -3,3 C -4,4 C -5,0 C 95 % 0 lf 1040,0 hPa 0,0 l/m 0 min 0 min 19 W/m 0,0 km/h (0 Bft) 95,74 %
29.12.2016 08:58 -3,3 C -4,4 C -5,0 C 95 % 1 lf 1040,0 hPa 0,0 l/m 0 min 0 min 19 W/m 2,1 km/h (1 Bft) 95,65 %
29.12.2016 09:00 -3,3 C -4,4 C -5,0 C 95 % 1 lf 1040,0 hPa 0,0 l/m 2 min 0 min 21 W/m 2,1 km/h (1 Bft) 95,74 %
29.12.2016 09:02 -3,3 C -4,4 C -5,0 C 95 % 0 lf 1039,9 hPa 0,0 l/m 2 min 0 min 21 W/m 0,0 km/h (0 Bft) 95,74 %
29.12.2016 09:04 -3,3 C -3,9 C -5,0 C 95 % 0 lf 1040,0 hPa 0,0 l/m 2 min 0 min 23 W/m 0,0 km/h (0 Bft) 97,87 %
29.12.2016 09:06 -3,4 C -4,4 C -5,0 C 95 % 1 lf 1039,9 hPa 0,0 l/m 2 min 0 min 25 W/m 0,0 km/h (0 Bft) 91,43 %
29.12.2016 09:08 -3,4 C -3,9 C -5,0 C 95 % 0 lf 1039,9 hPa 0,0 l/m 2 min 0 min 39 W/m 0,0 km/h (0 Bft) 95,74 %
29.12.2016 09:10 -3,4 C -3,9 C -5,0 C 95 % 0 lf 1039,9 hPa 0,0 l/m 2 min 0 min 40 W/m 0,0 km/h (0 Bft) 95,74 %
29.12.2016 09:12 -3,4 C -3,9 C -5,0 C 95 % 0 lf 1039,9 hPa 0,0 l/m 2 min 0 min 41 W/m 0,0 km/h (0 Bft) 95,65 %
29.12.2016 09:14 -3,4 C -3,9 C -5,0 C 95 % 0 lf 1039,9 hPa 0,0 l/m 2 min 0 min 42 W/m 0,0 km/h (0 Bft) 97,87 %
29.12.2016 09:16 -3,4 C -3,9 C -5,0 C 95 % 1 lf 1039,9 hPa 0,0 l/m 2 min 0 min 43 W/m 2,1 km/h (1 Bft) 93,62 %
29.12.2016 09:18 -3,4 C -3,9 C -5,0 C 95 % 1 lf 1039,9 hPa 0,0 l/m 2 min 0 min 44 W/m 0,0 km/h (0 Bft) 97,87 %
29.12.2016 09:20 -3,4 C -3,9 C -5,0 C 95 % 1 lf 1039,9 hPa 0,0 l/m 2 min 0 min 45 W/m 2,1 km/h (1 Bft) 97,87 %
29.12.2016 09:22 -3,4 C -3,9 C -5,0 C 95 % 1 lf 1039,9 hPa 0,0 l/m 2 min 0 min 46 W/m 2,1 km/h (1 Bft) 97,87 %
29.12.2016 09:24 -3,4 C -3,9 C -5,0 C 95 % 1 lf 1039,8 hPa 0,0 l/m 2 min 0 min 47 W/m 2,1 km/h (1 Bft) 95,65 %
29.12.2016 09:26 -3,4 C -3,9 C -5,0 C 95 % 1 lf 1039,9 hPa 0,0 l/m 2 min 0 min 47 W/m 2,1 km/h (1 Bft) 97,87 %
29.12.2016 09:28 -3,4 C -3,9 C -5,0 C 95 % 1 lf 1039,9 hPa 0,0 l/m 2 min 0 min 51 W/m 2,1 km/h (1 Bft) 95,74 %
29.12.2016 09:30 -3,4 C -3,3 C -5,0 C 95 % 1 lf 1040,0 hPa 0,0 l/m 2 min 0 min 57 W/m 2,1 km/h (1 Bft) 95,74 %
29.12.2016 09:32 -3,4 C -3,9 C -5,0 C 95 % 1 lf 1039,9 hPa 0,0 l/m 2 min 0 min 60 W/m 2,1 km/h (1 Bft) 97,87 %
29.12.2016 09:34 -3,4 C -3,3 C -5,0 C 95 % 1 lf 1039,9 hPa 0,0 l/m 2 min 0 min 64 W/m 4,2 km/h (1 Bft) 97,87 %
29.12.2016 09:36 -3,4 C -3,3 C -5,0 C 96 % 1 lf 1039,9 hPa 0,0 l/m 2 min 0 min 66 W/m 4,2 km/h (1 Bft) 96,55 %
29.12.2016 09:38 -3,4 C -3,3 C -5,0 C 96 % 1 lf 1039,9 hPa 0,0 l/m 2 min 0 min 69 W/m 4,2 km/h (1 Bft) 95,74 %
29.12.2016 09:40 -3,4 C -3,3 C -5,0 C 96 % 1 lf 1039,9 hPa 0,0 l/m 2 min 0 min 72 W/m 2,1 km/h (1 Bft) 91,49 %
29.12.2016 09:42 -3,4 C -3,3 C -4,4 C 96 % 1 lf 1040,0 hPa 0,0 l/m 2 min 0 min 75 W/m 2,1 km/h (1 Bft) 95,74 %
29.12.2016 09:44 -3,4 C -3,3 C -4,4 C 96 % 1 lf 1040,0 hPa 0,0 l/m 2 min 0 min 80 W/m 0,0 km/h (0 Bft) 93,48 %
29.12.2016 09:46 -3,4 C -3,3 C -4,4 C 96 % 1 lf 1040,0 hPa 0,0 l/m 2 min 0 min 85 W/m 0,0 km/h (0 Bft) 97,87 %
29.12.2016 09:48 -3,4 C -2,8 C -4,4 C 96 % 1 lf 1040,0 hPa 0,0 l/m 2 min 0 min 85 W/m 0,0 km/h (0 Bft) 93,62 %
29.12.2016 09:50 -3,4 C -2,8 C -4,4 C 95 % 1 lf 1040,0 hPa 0,0 l/m 2 min 0 min 84 W/m 4,2 km/h (1 Bft) 100,00 %
29.12.2016 09:52 -3,4 C -2,8 C -4,4 C 96 % 1 lf 1040,0 hPa 0,0 l/m 2 min 0 min 84 W/m 4,2 km/h (1 Bft) 94,29 %
29.12.2016 09:54 -3,4 C -2,8 C -4,4 C 96 % 1 lf 1040,1 hPa 0,0 l/m 2 min 0 min 83 W/m 4,2 km/h (1 Bft) 94,44 %
29.12.2016 09:56 -3,3 C -2,8 C -4,4 C 96 % 1 lf 1040,1 hPa 0,0 l/m 2 min 0 min 84 W/m 2,1 km/h (1 Bft) 94,00 %
29.12.2016 09:58 -3,3 C -2,8 C -4,4 C 96 % 1 lf 1040,1 hPa 0,0 l/m 2 min 0 min 85 W/m 2,1 km/h (1 Bft) 97,96 %
29.12.2016 10:00 -3,3 C -2,2 C -4,4 C 96 % 1 lf 1040,0 hPa 0,0 l/m 2 min 0 min 83 W/m 2,1 km/h (1 Bft) 92,11 %
29.12.2016 10:02 -3,3 C -2,2 C -3,9 C 96 % 1 lf 1040,1 hPa 0,0 l/m 2 min 0 min 84 W/m 4,2 km/h (1 Bft) 95,92 %
29.12.2016 10:04 -3,2 C -2,2 C -3,9 C 96 % 1 lf 1040,1 hPa 0,0 l/m 2 min 0 min 90 W/m 4,2 km/h (1 Bft) 94,00 %
29.12.2016 10:06 -3,2 C -1,7 C -3,9 C 96 % 1 lf 1040,0 hPa 0,0 l/m 2 min 0 min 92 W/m 2,1 km/h (1 Bft) 97,87 %
29.12.2016 10:08 -3,2 C -1,7 C -3,9 C 96 % 1 lf 1040,0 hPa 0,0 l/m 2 min 0 min 97 W/m 4,2 km/h (1 Bft) 97,62 %
29.12.2016 10:10 -3,1 C -1,1 C -3,9 C 96 % 1 lf 1040,0 hPa 0,0 l/m 2 min 0 min 98 W/m 4,2 km/h (1 Bft) 92,00 %
29.12.2016 10:12 -3,0 C -1,1 C -3,3 C 96 % 1 lf 1040,0 hPa 0,0 l/m 2 min 0 min 101 W/m 4,2 km/h (1 Bft) 97,92 %
29.12.2016 10:14 -2,9 C -1,1 C -3,3 C 96 % 1 lf 1040,0 hPa 0,0 l/m 2 min 0 min 104 W/m 4,2 km/h (1 Bft) 91,49 %
29.12.2016 10:16 -2,8 C -0,6 C -3,3 C 96 % 2 lf 1040,0 hPa 0,0 l/m 2 min 0 min 108 W/m 6,3 km/h (2 Bft) 92,86 %
29.12.2016 10:18 -2,6 C -0,6 C -2,8 C 96 % 2 lf 1040,0 hPa 0,0 l/m 2 min 0 min 110 W/m 4,2 km/h (1 Bft) 94,00 %
29.12.2016 10:20 -2,5 C -0,6 C -2,8 C 96 % 2 lf 1040,0 hPa 0,0 l/m 2 min 0 min 114 W/m 4,2 km/h (1 Bft) 91,84 %
29.12.2016 10:22 -2,4 C -0,6 C -2,8 C 96 % 2 lf 1040,0 hPa 0,0 l/m 2 min 0 min 117 W/m 8,4 km/h (2 Bft) 97,87 %
29.12.2016 10:24 -2,2 C -0,6 C -2,8 C 96 % 2 lf 1040,0 hPa 0,0 l/m 2 min 0 min 120 W/m 6,3 km/h (2 Bft) 97,83 %
29.12.2016 10:26 -2,1 C -0,6 C -2,8 C 96 % 2 lf 1040,0 hPa 0,0 l/m 2 min 0 min 124 W/m 8,4 km/h (2 Bft) 97,62 %
29.12.2016 10:28 -2,0 C -0,6 C -2,8 C 96 % 2 lf 1040,0 hPa 0,0 l/m 2 min 0 min 126 W/m 4,2 km/h (1 Bft) 95,74 %
29.12.2016 10:30 -1,9 C -0,6 C -2,8 C 96 % 2 lf 1039,9 hPa 0,0 l/m 2 min 0 min 128 W/m 4,2 km/h (1 Bft) 98,00 %
29.12.2016 10:32 -1,8 C -0,6 C -2,8 C 97 % 3 lf 1040,0 hPa 0,0 l/m 2 min 0 min 131 W/m 6,3 km/h (2 Bft) 95,74 %
29.12.2016 10:34 -1,8 C -0,6 C -2,2 C 97 % 3 lf 1039,9 hPa 0,0 l/m 2 min 0 min 134 W/m 4,2 km/h (1 Bft) 93,88 %
29.12.2016 10:36 -1,7 C -0,6 C -2,2 C 96 % 3 lf 1039,9 hPa 0,0 l/m 2 min 0 min 136 W/m 6,3 km/h (2 Bft) 95,65 %
29.12.2016 10:38 -1,6 C 0,0 C -2,2 C 96 % 3 lf 1039,9 hPa 0,0 l/m 2 min 0 min 140 W/m 4,2 km/h (1 Bft) 97,87 %
29.12.2016 10:40 -1,5 C 0,0 C -2,2 C 97 % 4 lf 1039,9 hPa 0,0 l/m 2 min 0 min 143 W/m 6,3 km/h (2 Bft) 97,62 %
29.12.2016 10:42 -1,4 C 0,0 C -2,2 C 97 % 4 lf 1039,9 hPa 0,0 l/m 2 min 0 min 146 W/m 4,2 km/h (1 Bft) 96,00 %
29.12.2016 10:44 -1,2 C 0,0 C -2,2 C 97 % 7 lf 1039,9 hPa 0,0 l/m 2 min 0 min 149 W/m 6,3 km/h (2 Bft) 95,92 %
29.12.2016 10:46 -1,1 C 0,0 C -2,2 C 97 % 9 lf 1039,9 hPa 0,0 l/m 2 min 0 min 152 W/m 6,3 km/h (2 Bft) 100,00 %
29.12.2016 10:48 -1,1 C 0,0 C -2,2 C 97 % 12 lf 1039,9 hPa 0,0 l/m 2 min 0 min 155 W/m 10,5 km/h (2 Bft) 100,00 %
29.12.2016 10:50 -0,9 C 0,0 C -1,7 C 97 % 15 lf 1039,9 hPa 0,0 l/m 2 min 0 min 156 W/m 8,4 km/h (2 Bft) 100,00 %
29.12.2016 10:52 -0,8 C 0,0 C -1,7 C 97 % 15 lf 1039,9 hPa 0,0 l/m 2 min 0 min 158 W/m 12,6 km/h (3 Bft) 98,00 %
29.12.2016 10:54 -0,7 C 0,0 C -1,7 C 97 % 15 lf 1039,9 hPa 0,0 l/m 2 min 0 min 162 W/m 8,4 km/h (2 Bft) 95,92 %
29.12.2016 10:56 -0,6 C 0,0 C -1,7 C 97 % 15 lf 1039,9 hPa 0,0 l/m 2 min 0 min 166 W/m 8,4 km/h (2 Bft) 100,00 %
29.12.2016 10:58 -0,5 C 0,0 C -1,7 C 97 % 15 lf 1039,9 hPa 0,0 l/m 2 min 0 min 169 W/m 10,5 km/h (2 Bft) 97,83 %
29.12.2016 11:00 -0,4 C 0,0 C -1,7 C 97 % 15 lf 1039,8 hPa 0,0 l/m 2 min 0 min 172 W/m 6,3 km/h (2 Bft) 100,00 %
29.12.2016 11:02 -0,3 C 0,6 C -1,7 C 97 % 15 lf 1039,8 hPa 0,0 l/m 2 min 0 min 174 W/m 8,4 km/h (2 Bft) 100,00 %
29.12.2016 11:04 -0,2 C 1,1 C -1,7 C 97 % 15 lf 1039,8 hPa 0,0 l/m 2 min 0 min 177 W/m 12,6 km/h (3 Bft) 98,00 %
29.12.2016 11:06 -0,1 C 1,1 C -1,1 C 97 % 15 lf 1039,7 hPa 0,0 l/m 2 min 0 min 179 W/m 12,6 km/h (3 Bft) 97,87 %
29.12.2016 11:08 -0,1 C 1,7 C -1,1 C 97 % 15 lf 1039,7 hPa 0,0 l/m 2 min 0 min 183 W/m 8,4 km/h (2 Bft) 100,00 %
29.12.2016 11:10 0,1 C 1,7 C -1,1 C 97 % 15 lf 1039,6 hPa 0,0 l/m 2 min 0 min 186 W/m 12,6 km/h (3 Bft) 97,37 %
29.12.2016 11:12 0,2 C 1,7 C -1,1 C 97 % 15 lf 1039,6 hPa 0,0 l/m 2 min 0 min 186 W/m 16,7 km/h (3 Bft) 100,00 %
29.12.2016 11:14 0,2 C 2,2 C -1,1 C 97 % 15 lf 1039,6 hPa 0,0 l/m 2 min 0 min 191 W/m 16,7 km/h (3 Bft) 100,00 %
29.12.2016 11:16 0,3 C 2,2 C -1,1 C 97 % 15 lf 1039,7 hPa 0,0 l/m 2 min 0 min 192 W/m 16,7 km/h (3 Bft) 100,00 %
29.12.2016 11:18 0,4 C 3,3 C -1,1 C 97 % 15 lf 1039,6 hPa 0,0 l/m 2 min 2 min 197 W/m 14,6 km/h (3 Bft) 100,00 %
29.12.2016 11:20 0,5 C 3,9 C -1,1 C 97 % 15 lf 1039,6 hPa 0,0 l/m 2 min 0 min 199 W/m 10,5 km/h (2 Bft) 100,00 %
29.12.2016 11:22 0,5 C 4,4 C -1,1 C 97 % 15 lf 1039,6 hPa 0,0 l/m 2 min 2 min 200 W/m 16,7 km/h (3 Bft) 97,83 %
29.12.2016 11:24 0,6 C 4,4 C -1,1 C 97 % 15 lf 1039,6 hPa 0,0 l/m 2 min 0 min 201 W/m 14,6 km/h (3 Bft) 97,87 %
29.12.2016 11:26 0,7 C 4,4 C -1,1 C 97 % 15 lf 1039,5 hPa 0,0 l/m 2 min 0 min 202 W/m 14,6 km/h (3 Bft) 94,44 %
29.12.2016 11:28 0,8 C 5,0 C -1,1 C 97 % 15 lf 1039,5 hPa 0,0 l/m 2 min 0 min 204 W/m 12,6 km/h (3 Bft) 100,00 %
29.12.2016 11:30 0,9 C 5,0 C -1,1 C 97 % 15 lf 1039,4 hPa 0,0 l/m 2 min 0 min 206 W/m 20,9 km/h (4 Bft) 95,92 %
29.12.2016 11:32 1,0 C 5,6 C -1,1 C 97 % 15 lf 1039,5 hPa 0,0 l/m 2 min 2 min 207 W/m 20,9 km/h (4 Bft) 100,00 %
29.12.2016 11:34 1,1 C 5,6 C -1,1 C 97 % 15 lf 1039,5 hPa 0,0 l/m 2 min 2 min 207 W/m 14,6 km/h (3 Bft) 100,00 %
29.12.2016 11:36 1,2 C 5,6 C -0,6 C 97 % 15 lf 1039,5 hPa 0,0 l/m 2 min 0 min 209 W/m 20,9 km/h (4 Bft) 97,37 %
29.12.2016 11:38 1,3 C 5,6 C -0,6 C 97 % 15 lf 1039,4 hPa 0,0 l/m 2 min 0 min 211 W/m 14,6 km/h (3 Bft) 89,80 %
29.12.2016 11:40 1,3 C 6,1 C -0,6 C 97 % 15 lf 1039,4 hPa 0,0 l/m 2 min 0 min 212 W/m 12,6 km/h (3 Bft) 91,49 %
29.12.2016 11:42 1,4 C 5,6 C -0,6 C 97 % 15 lf 1039,5 hPa 0,0 l/m 2 min 0 min 213 W/m 14,6 km/h (3 Bft) 96,30 %
29.12.2016 11:44 1,5 C 6,7 C -0,6 C 97 % 15 lf 1039,4 hPa 0,0 l/m 2 min 0 min 218 W/m 14,6 km/h (3 Bft) 92,11 %
29.12.2016 11:46 1,6 C 7,2 C -0,6 C 97 % 15 lf 1039,4 hPa 0,0 l/m 2 min 0 min 220 W/m 12,6 km/h (3 Bft) 93,75 %
29.12.2016 11:48 1,7 C 5,6 C 0,0 C 97 % 15 lf 1039,4 hPa 0,0 l/m 2 min 0 min 218 W/m 18,8 km/h (3 Bft) 95,74 %
29.12.2016 11:50 1,7 C 6,1 C 0,0 C 98 % 15 lf 1039,3 hPa 0,0 l/m 2 min 0 min 219 W/m 14,6 km/h (3 Bft) 94,44 %
29.12.2016 11:52 1,8 C 5,6 C 0,0 C 98 % 15 lf 1039,3 hPa 0,0 l/m 2 min 0 min 222 W/m 18,8 km/h (3 Bft) 97,37 %
29.12.2016 11:54 1,8 C 6,7 C 0,0 C 97 % 15 lf 1039,2 hPa 0,0 l/m 2 min 0 min 224 W/m 18,8 km/h (3 Bft) 89,80 %
29.12.2016 11:56 1,9 C 7,2 C 0,0 C 97 % 15 lf 1039,2 hPa 0,0 l/m 2 min 0 min 226 W/m 14,6 km/h (3 Bft) 93,62 %
29.12.2016 11:58 1,9 C 5,6 C 0,0 C 98 % 15 lf 1039,2 hPa 0,0 l/m 2 min 0 min 227 W/m 20,9 km/h (4 Bft) 95,65 %
29.12.2016 12:00 2,1 C 6,1 C 0,0 C 97 % 15 lf 1039,1 hPa 0,0 l/m 2 min 0 min 225 W/m 16,7 km/h (3 Bft) 96,00 %
29.12.2016 12:02 2,1 C 5,6 C 0,0 C 97 % 15 lf 1039,2 hPa 0,0 l/m 2 min 0 min 225 W/m 18,8 km/h (3 Bft) 94,74 %
29.12.2016 12:05 2,2 C 5,0 C 0,0 C 97 % 15 lf 1039,2 hPa 0,0 l/m 2 min 0 min 227 W/m 16,7 km/h (3 Bft) 95,00 %
29.12.2016 12:06 2,2 C 4,4 C 0,0 C 97 % 15 lf 1039,2 hPa 0,0 l/m 1 min 0 min 228 W/m 16,7 km/h (3 Bft) 91,67 %
29.12.2016 12:08 2,2 C 5,0 C 0,0 C 97 % 15 lf 1039,1 hPa 0,0 l/m 2 min 0 min 232 W/m 18,8 km/h (3 Bft) 97,83 %
29.12.2016 12:10 2,3 C 5,0 C 0,0 C 97 % 15 lf 1039,1 hPa 0,0 l/m 2 min 0 min 231 W/m 18,8 km/h (3 Bft) 91,49 %
29.12.2016 12:12 2,3 C 4,4 C 0,0 C 97 % 15 lf 1039,1 hPa 0,0 l/m 2 min 0 min 232 W/m 18,8 km/h (3 Bft) 95,74 %
29.12.2016 12:14 2,4 C 4,4 C 0,6 C 97 % 15 lf 1039,0 hPa 0,0 l/m 2 min 0 min 232 W/m 18,8 km/h (3 Bft) 93,62 %
29.12.2016 12:16 2,4 C 4,4 C 0,6 C 97 % 15 lf 1038,9 hPa 0,0 l/m 2 min 0 min 232 W/m 18,8 km/h (3 Bft) 100,00 %
29.12.2016 12:18 2,4 C 5,0 C 0,6 C 97 % 15 lf 1039,0 hPa 0,0 l/m 2 min 0 min 232 W/m 18,8 km/h (3 Bft) 97,87 %
29.12.2016 12:20 2,5 C 5,0 C 0,6 C 97 % 15 lf 1038,9 hPa 0,0 l/m 2 min 0 min 232 W/m 14,6 km/h (3 Bft) 97,83 %
29.12.2016 12:22 2,6 C 5,6 C 0,6 C 97 % 15 lf 1038,9 hPa 0,0 l/m 2 min 0 min 233 W/m 20,9 km/h (4 Bft) 100,00 %
29.12.2016 12:24 2,6 C 5,6 C 0,6 C 96 % 15 lf 1038,9 hPa 0,0 l/m 2 min 0 min 234 W/m 18,8 km/h (3 Bft) 95,74 %
29.12.2016 12:26 2,7 C 5,6 C 0,6 C 96 % 15 lf 1038,9 hPa 0,0 l/m 2 min 0 min 234 W/m 23,0 km/h (4 Bft) 97,87 %
29.12.2016 12:28 2,7 C 5,0 C 0,6 C 96 % 15 lf 1038,9 hPa 0,0 l/m 2 min 0 min 232 W/m 25,1 km/h (4 Bft) 95,74 %
29.12.2016 12:30 2,7 C 5,0 C 0,6 C 95 % 15 lf 1038,9 hPa 0,0 l/m 2 min 0 min 235 W/m 18,8 km/h (3 Bft) 95,74 %
29.12.2016 12:32 2,8 C 5,0 C 0,6 C 95 % 15 lf 1038,9 hPa 0,0 l/m 2 min 0 min 235 W/m 18,8 km/h (3 Bft) 97,83 %
29.12.2016 12:34 2,8 C 5,6 C 0,6 C 95 % 15 lf 1038,9 hPa 0,0 l/m 2 min 0 min 230 W/m 14,6 km/h (3 Bft) 100,00 %
29.12.2016 12:36 2,8 C 5,0 C 0,6 C 94 % 15 lf 1038,9 hPa 0,0 l/m 2 min 0 min 232 W/m 18,8 km/h (3 Bft) 91,49 %
29.12.2016 12:38 2,9 C 5,0 C 1,1 C 94 % 14 lf 1038,9 hPa 0,0 l/m 2 min 0 min 230 W/m 20,9 km/h (4 Bft) 97,87 %
29.12.2016 12:40 2,9 C 5,6 C 1,1 C 94 % 12 lf 1038,9 hPa 0,0 l/m 2 min 0 min 230 W/m 20,9 km/h (4 Bft) 97,87 %
29.12.2016 12:42 2,9 C 5,6 C 1,1 C 93 % 5 lf 1038,9 hPa 0,0 l/m 2 min 0 min 230 W/m 12,6 km/h (3 Bft) 100,00 %
29.12.2016 12:44 3,0 C 6,1 C 1,1 C 93 % 2 lf 1038,9 hPa 0,0 l/m 2 min 0 min 230 W/m 14,6 km/h (3 Bft) 95,74 %
29.12.2016 12:46 3,1 C 5,6 C 1,1 C 92 % 0 lf 1038,8 hPa 0,0 l/m 2 min 0 min 230 W/m 14,6 km/h (3 Bft) 97,87 %
29.12.2016 12:48 3,1 C 6,7 C 1,1 C 92 % 0 lf 1038,9 hPa 0,0 l/m 2 min 0 min 229 W/m 16,7 km/h (3 Bft) 93,62 %
29.12.2016 12:50 3,2 C 6,7 C 1,1 C 91 % 0 lf 1038,8 hPa 0,0 l/m 2 min 0 min 229 W/m 14,6 km/h (3 Bft) 97,87 %
29.12.2016 12:52 3,2 C 6,7 C 1,1 C 91 % 0 lf 1038,8 hPa 0,0 l/m 2 min 0 min 229 W/m 18,8 km/h (3 Bft) 97,87 %
29.12.2016 12:54 3,3 C 6,7 C 1,1 C 91 % 0 lf 1038,7 hPa 0,0 l/m 2 min 0 min 229 W/m 16,7 km/h (3 Bft) 95,65 %
29.12.2016 12:56 3,4 C 7,2 C 1,1 C 90 % 0 lf 1038,7 hPa 0,0 l/m 2 min 0 min 231 W/m 14,6 km/h (3 Bft) 95,74 %
29.12.2016 12:58 3,4 C 7,8 C 1,1 C 90 % 0 lf 1038,7 hPa 0,0 l/m 2 min 0 min 230 W/m 14,6 km/h (3 Bft) 93,62 %
29.12.2016 13:00 3,5 C 7,2 C 1,7 C 90 % 0 lf 1038,7 hPa 0,0 l/m 2 min 0 min 229 W/m 20,9 km/h (4 Bft) 93,62 %
29.12.2016 13:02 3,6 C 7,8 C 1,7 C 89 % 0 lf 1038,7 hPa 0,0 l/m 2 min 0 min 229 W/m 18,8 km/h (3 Bft) 93,02 %
29.12.2016 13:04 3,7 C 7,8 C 1,7 C 89 % 0 lf 1038,7 hPa 0,0 l/m 2 min 0 min 227 W/m 14,6 km/h (3 Bft) 92,00 %
29.12.2016 13:06 3,7 C 7,2 C 1,7 C 89 % 0 lf 1038,7 hPa 0,0 l/m 2 min 0 min 225 W/m 16,7 km/h (3 Bft) 95,65 %
29.12.2016 13:08 3,8 C 7,2 C 1,7 C 88 % 0 lf 1038,7 hPa 0,0 l/m 2 min 0 min 224 W/m 23,0 km/h (4 Bft) 95,74 %
29.12.2016 13:10 3,8 C 6,7 C 1,7 C 88 % 0 lf 1038,7 hPa 0,0 l/m 2 min 0 min 221 W/m 20,9 km/h (4 Bft) 97,87 %
29.12.2016 13:12 3,9 C 6,7 C 1,7 C 87 % 0 lf 1038,6 hPa 0,0 l/m 2 min 0 min 221 W/m 18,8 km/h (3 Bft) 95,74 %
29.12.2016 13:14 3,9 C 6,7 C 1,7 C 87 % 0 lf 1038,6 hPa 0,0 l/m 2 min 0 min 220 W/m 16,7 km/h (3 Bft) 97,87 %
29.12.2016 13:16 4,0 C 7,2 C 1,7 C 86 % 0 lf 1038,7 hPa 0,0 l/m 2 min 0 min 219 W/m 20,9 km/h (4 Bft) 97,87 %
29.12.2016 13:18 4,1 C 7,8 C 1,7 C 86 % 0 lf 1038,7 hPa 0,0 l/m 2 min 0 min 216 W/m 12,6 km/h (3 Bft) 93,48 %
29.12.2016 13:20 4,1 C 7,8 C 1,7 C 86 % 0 lf 1038,6 hPa 0,0 l/m 2 min 0 min 213 W/m 10,5 km/h (2 Bft) 91,49 %
29.12.2016 13:22 4,2 C 7,8 C 1,7 C 85 % 0 lf 1038,5 hPa 0,0 l/m 2 min 0 min 212 W/m 20,9 km/h (4 Bft) 95,74 %
29.12.2016 13:24 4,2 C 7,2 C 1,7 C 85 % 0 lf 1038,5 hPa 0,0 l/m 2 min 0 min 209 W/m 23,0 km/h (4 Bft) 97,87 %
29.12.2016 13:26 4,2 C 6,7 C 1,7 C 85 % 0 lf 1038,4 hPa 0,0 l/m 2 min 0 min 207 W/m 23,0 km/h (4 Bft) 95,74 %
29.12.2016 13:28 4,3 C 6,1 C 1,7 C 84 % 0 lf 1038,4 hPa 0,0 l/m 2 min 0 min 205 W/m 18,8 km/h (3 Bft) 97,87 %
29.12.2016 13:30 4,3 C 6,7 C 2,2 C 84 % 0 lf 1038,4 hPa 0,0 l/m 2 min 0 min 203 W/m 16,7 km/h (3 Bft) 95,65 %
29.12.2016 13:32 4,4 C 6,7 C 2,2 C 84 % 0 lf 1038,3 hPa 0,0 l/m 2 min 0 min 202 W/m 20,9 km/h (4 Bft) 95,74 %
29.12.2016 13:34 4,4 C 7,2 C 2,2 C 83 % 0 lf 1038,3 hPa 0,0 l/m 2 min 0 min 200 W/m 23,0 km/h (4 Bft) 97,87 %
29.12.2016 13:36 4,4 C 6,7 C 2,2 C 83 % 0 lf 1038,3 hPa 0,0 l/m 2 min 0 min 198 W/m 18,8 km/h (3 Bft) 97,87 %
29.12.2016 13:38 4,4 C 7,2 C 2,2 C 83 % 0 lf 1038,3 hPa 0,0 l/m 2 min 0 min 196 W/m 18,8 km/h (3 Bft) 97,87 %
29.12.2016 13:40 4,5 C 6,7 C 2,2 C 83 % 0 lf 1038,3 hPa 0,0 l/m 2 min 0 min 193 W/m 23,0 km/h (4 Bft) 93,62 %
29.12.2016 13:42 4,5 C 7,2 C 2,2 C 82 % 0 lf 1038,2 hPa 0,0 l/m 2 min 0 min 192 W/m 20,9 km/h (4 Bft) 95,65 %
29.12.2016 13:44 4,6 C 7,8 C 2,2 C 82 % 0 lf 1038,2 hPa 0,0 l/m 2 min 0 min 191 W/m 16,7 km/h (3 Bft) 93,62 %
29.12.2016 13:46 4,6 C 8,3 C 2,2 C 82 % 0 lf 1038,3 hPa 0,0 l/m 2 min 0 min 188 W/m 23,0 km/h (4 Bft) 91,49 %
29.12.2016 13:48 4,6 C 8,9 C 2,2 C 82 % 0 lf 1038,3 hPa 0,0 l/m 2 min 0 min 185 W/m 16,7 km/h (3 Bft) 93,62 %
29.12.2016 13:50 4,7 C 9,4 C 2,8 C 82 % 0 lf 1038,2 hPa 0,0 l/m 2 min 0 min 183 W/m 18,8 km/h (3 Bft) 93,62 %
29.12.2016 13:52 4,7 C 10,0 C 2,8 C 82 % 0 lf 1038,2 hPa 0,0 l/m 2 min 0 min 181 W/m 14,6 km/h (3 Bft) 95,74 %
29.12.2016 13:54 4,8 C 10,6 C 2,8 C 82 % 0 lf 1038,2 hPa 0,0 l/m 2 min 0 min 179 W/m 20,9 km/h (4 Bft) 93,48 %
29.12.2016 13:56 4,8 C 10,6 C 2,8 C 82 % 0 lf 1038,2 hPa 0,0 l/m 2 min 0 min 177 W/m 27,2 km/h (4 Bft) 93,62 %
29.12.2016 13:58 4,9 C 11,1 C 2,8 C 82 % 0 lf 1038,1 hPa 0,0 l/m 2 min 0 min 174 W/m 16,7 km/h (3 Bft) 93,62 %
29.12.2016 14:00 4,9 C 9,4 C 3,3 C 82 % 0 lf 1038,2 hPa 0,0 l/m 2 min 0 min 172 W/m 29,3 km/h (5 Bft) 93,75 %
29.12.2016 14:02 4,9 C 9,4 C 3,3 C 81 % 0 lf 1038,1 hPa 0,0 l/m 2 min 0 min 169 W/m 20,9 km/h (4 Bft) 89,36 %
29.12.2016 14:04 5,0 C 9,4 C 3,3 C 81 % 0 lf 1038,1 hPa 0,0 l/m 2 min 0 min 166 W/m 14,6 km/h (3 Bft) 90,70 %
29.12.2016 14:06 5,1 C 10,0 C 3,3 C 81 % 0 lf 1038,2 hPa 0,0 l/m 2 min 0 min 164 W/m 16,7 km/h (3 Bft) 93,48 %
29.12.2016 14:08 5,1 C 10,0 C 3,3 C 81 % 0 lf 1038,1 hPa 0,0 l/m 2 min 0 min 162 W/m 16,7 km/h (3 Bft) 91,49 %
29.12.2016 14:10 5,1 C 8,9 C 3,3 C 81 % 0 lf 1038,1 hPa 0,0 l/m 2 min 0 min 159 W/m 25,1 km/h (4 Bft) 91,49 %
29.12.2016 14:12 5,1 C 8,9 C 3,3 C 80 % 0 lf 1038,0 hPa 0,0 l/m 2 min 0 min 156 W/m 23,0 km/h (4 Bft) 87,23 %
29.12.2016 14:14 5,1 C 8,9 C 3,3 C 80 % 0 lf 1038,0 hPa 0,0 l/m 2 min 0 min 154 W/m 16,7 km/h (3 Bft) 91,49 %
29.12.2016 14:16 5,2 C 9,4 C 3,3 C 80 % 0 lf 1038,0 hPa 0,0 l/m 2 min 0 min 151 W/m 20,9 km/h (4 Bft) 93,62 %
29.12.2016 14:18 5,2 C 10,0 C 3,3 C 80 % 0 lf 1038,0 hPa 0,0 l/m 2 min 0 min 148 W/m 14,6 km/h (3 Bft) 93,48 %
29.12.2016 14:20 5,2 C 9,4 C 3,3 C 80 % 0 lf 1038,0 hPa 0,0 l/m 2 min 0 min 144 W/m 23,0 km/h (4 Bft) 95,74 %
29.12.2016 14:22 5,2 C 8,9 C 3,3 C 80 % 0 lf 1037,9 hPa 0,0 l/m 2 min 0 min 142 W/m 23,0 km/h (4 Bft) 95,74 %
29.12.2016 14:24 5,2 C 7,8 C 3,9 C 80 % 0 lf 1037,9 hPa 0,0 l/m 2 min 0 min 139 W/m 20,9 km/h (4 Bft) 93,62 %
29.12.2016 14:26 5,2 C 7,2 C 3,9 C 80 % 0 lf 1037,9 hPa 0,0 l/m 2 min 0 min 136 W/m 16,7 km/h (3 Bft) 95,74 %
29.12.2016 14:28 5,2 C 6,1 C 3,9 C 80 % 0 lf 1037,9 hPa 0,0 l/m 2 min 0 min 133 W/m 16,7 km/h (3 Bft) 95,74 %
29.12.2016 14:30 5,2 C 6,1 C 3,9 C 80 % 0 lf 1037,9 hPa 0,0 l/m 2 min 0 min 130 W/m 18,8 km/h (3 Bft) 95,65 %
29.12.2016 14:32 5,2 C 5,6 C 3,9 C 80 % 0 lf 1037,8 hPa 0,0 l/m 2 min 0 min 127 W/m 16,7 km/h (3 Bft) 97,87 %
29.12.2016 14:34 5,2 C 5,6 C 3,9 C 80 % 0 lf 1037,8 hPa 0,0 l/m 2 min 0 min 124 W/m 18,8 km/h (3 Bft) 95,74 %
29.12.2016 14:36 5,2 C 5,6 C 3,9 C 80 % 0 lf 1037,9 hPa 0,0 l/m 2 min 0 min 121 W/m 23,0 km/h (4 Bft) 95,74 %
29.12.2016 14:38 5,2 C 5,6 C 3,3 C 80 % 0 lf 1037,9 hPa 0,0 l/m 2 min 0 min 118 W/m 16,7 km/h (3 Bft) 93,62 %
29.12.2016 14:40 5,1 C 5,6 C 3,3 C 80 % 0 lf 1037,9 hPa 0,0 l/m 2 min 0 min 115 W/m 16,7 km/h (3 Bft) 95,74 %
29.12.2016 14:42 5,1 C 5,6 C 3,3 C 80 % 0 lf 1037,8 hPa 0,0 l/m 2 min 0 min 113 W/m 14,6 km/h (3 Bft) 93,48 %
29.12.2016 14:44 5,1 C 5,6 C 3,3 C 80 % 0 lf 1037,8 hPa 0,0 l/m 2 min 0 min 109 W/m 14,6 km/h (3 Bft) 95,74 %
29.12.2016 14:46 5,1 C 5,6 C 3,3 C 80 % 0 lf 1037,8 hPa 0,0 l/m 2 min 0 min 106 W/m 16,7 km/h (3 Bft) 97,87 %
29.12.2016 14:48 5,1 C 5,6 C 3,3 C 80 % 0 lf 1037,8 hPa 0,0 l/m 2 min 0 min 104 W/m 10,5 km/h (2 Bft) 95,74 %
29.12.2016 14:50 5,1 C 5,6 C 3,3 C 80 % 0 lf 1037,8 hPa 0,0 l/m 2 min 0 min 100 W/m 8,4 km/h (2 Bft) 97,87 %
29.12.2016 14:52 5,1 C 5,6 C 3,3 C 80 % 0 lf 1037,8 hPa 0,0 l/m 2 min 0 min 97 W/m 16,7 km/h (3 Bft) 97,83 %
29.12.2016 14:54 5,1 C 5,6 C 3,3 C 80 % 0 lf 1037,7 hPa 0,0 l/m 0 min 0 min 94 W/m 14,6 km/h (3 Bft) 95,74 %
29.12.2016 14:56 5,1 C 5,6 C 3,3 C 81 % 0 lf 1037,7 hPa 0,0 l/m 0 min 0 min 91 W/m 10,5 km/h (2 Bft) 97,87 %
29.12.2016 14:58 5,1 C 5,6 C 3,3 C 81 % 0 lf 1037,6 hPa 0,0 l/m 0 min 0 min 88 W/m 10,5 km/h (2 Bft) 97,87 %
29.12.2016 15:00 5,1 C 5,6 C 3,3 C 81 % 0 lf 1037,6 hPa 0,0 l/m 0 min 0 min 85 W/m 16,7 km/h (3 Bft) 96,00 %
29.12.2016 15:02 5,1 C 5,6 C 3,3 C 81 % 0 lf 1037,7 hPa 0,0 l/m 0 min 0 min 83 W/m 12,6 km/h (3 Bft) 97,92 %
29.12.2016 15:04 5,1 C 5,6 C 3,3 C 81 % 0 lf 1037,7 hPa 0,0 l/m 0 min 0 min 78 W/m 14,6 km/h (3 Bft) 95,65 %
29.12.2016 15:06 5,1 C 5,6 C 2,8 C 81 % 0 lf 1037,7 hPa 0,0 l/m 0 min 0 min 76 W/m 10,5 km/h (2 Bft) 93,62 %
29.12.2016 15:08 5,1 C 5,6 C 2,8 C 81 % 0 lf 1037,7 hPa 0,0 l/m 0 min 0 min 72 W/m 12,6 km/h (3 Bft) 93,62 %
29.12.2016 15:10 5,0 C 5,6 C 3,3 C 81 % 0 lf 1037,7 hPa 0,0 l/m 0 min 0 min 70 W/m 18,8 km/h (3 Bft) 93,62 %
29.12.2016 15:12 5,0 C 5,6 C 3,3 C 81 % 0 lf 1037,6 hPa 0,0 l/m 0 min 0 min 67 W/m 10,5 km/h (2 Bft) 95,74 %
29.12.2016 15:14 5,1 C 5,6 C 2,8 C 81 % 0 lf 1037,6 hPa 0,0 l/m 0 min 0 min 63 W/m 10,5 km/h (2 Bft) 100,00 %
29.12.2016 15:16 5,0 C 5,6 C 2,8 C 81 % 0 lf 1037,6 hPa 0,0 l/m 0 min 0 min 61 W/m 14,6 km/h (3 Bft) 97,83 %
29.12.2016 15:18 5,0 C 5,6 C 2,8 C 81 % 0 lf 1037,7 hPa 0,0 l/m 0 min 0 min 57 W/m 12,6 km/h (3 Bft) 100,00 %
29.12.2016 15:20 5,0 C 5,6 C 2,8 C 81 % 0 lf 1037,7 hPa 0,0 l/m 0 min 0 min 54 W/m 8,4 km/h (2 Bft) 100,00 %
29.12.2016 15:22 5,0 C 5,6 C 2,8 C 81 % 0 lf 1037,7 hPa 0,0 l/m 0 min 0 min 51 W/m 16,7 km/h (3 Bft) 97,87 %
29.12.2016 15:24 5,0 C 5,6 C 2,8 C 81 % 0 lf 1037,8 hPa 0,0 l/m 0 min 0 min 48 W/m 12,6 km/h (3 Bft) 100,00 %
29.12.2016 15:26 5,0 C 5,6 C 2,8 C 81 % 0 lf 1037,7 hPa 0,0 l/m 0 min 0 min 45 W/m 10,5 km/h (2 Bft) 100,00 %
29.12.2016 15:28 5,0 C 5,0 C 2,8 C 81 % 0 lf 1037,7 hPa 0,0 l/m 0 min 0 min 42 W/m 10,5 km/h (2 Bft) 100,00 %
29.12.2016 15:30 5,0 C 5,0 C 2,8 C 81 % 0 lf 1037,8 hPa 0,0 l/m 0 min 0 min 39 W/m 6,3 km/h (2 Bft) 95,74 %
29.12.2016 15:32 4,9 C 5,0 C 2,2 C 81 % 0 lf 1037,8 hPa 0,0 l/m 0 min 0 min 37 W/m 8,4 km/h (2 Bft) 97,87 %
29.12.2016 15:34 4,9 C 5,0 C 2,2 C 81 % 0 lf 1037,8 hPa 0,0 l/m 0 min 0 min 35 W/m 8,4 km/h (2 Bft) 100,00 %
29.12.2016 15:36 4,9 C 5,0 C 2,2 C 81 % 0 lf 1037,8 hPa 0,0 l/m 0 min 0 min 33 W/m 12,6 km/h (3 Bft) 93,62 %
29.12.2016 15:38 4,9 C 5,0 C 2,2 C 81 % 0 lf 1037,8 hPa 0,0 l/m 0 min 0 min 32 W/m 10,5 km/h (2 Bft) 97,83 %
29.12.2016 15:40 4,9 C 5,0 C 2,2 C 81 % 0 lf 1037,8 hPa 0,0 l/m 0 min 0 min 30 W/m 8,4 km/h (2 Bft) 97,87 %
29.12.2016 15:42 4,9 C 5,0 C 2,2 C 81 % 0 lf 1037,8 hPa 0,0 l/m 0 min 0 min 29 W/m 10,5 km/h (2 Bft) 100,00 %
29.12.2016 15:44 4,9 C 5,0 C 2,2 C 81 % 0 lf 1037,8 hPa 0,0 l/m 0 min 0 min 28 W/m 10,5 km/h (2 Bft) 100,00 %
29.12.2016 15:46 4,9 C 5,0 C 1,7 C 81 % 0 lf 1037,8 hPa 0,0 l/m 0 min 0 min 28 W/m 8,4 km/h (2 Bft) 95,74 %
29.12.2016 15:48 4,9 C 5,0 C 1,7 C 81 % 0 lf 1037,8 hPa 0,0 l/m 0 min 0 min 26 W/m 10,5 km/h (2 Bft) 97,87 %
29.12.2016 15:50 4,8 C 5,0 C 1,7 C 81 % 0 lf 1037,8 hPa 0,0 l/m 0 min 0 min 26 W/m 10,5 km/h (2 Bft) 97,83 %
29.12.2016 15:52 4,8 C 5,0 C 1,7 C 81 % 0 lf 1037,7 hPa 0,0 l/m 0 min 0 min 26 W/m 8,4 km/h (2 Bft) 95,74 %
29.12.2016 15:54 4,8 C 5,0 C 1,7 C 81 % 0 lf 1037,8 hPa 0,0 l/m 0 min 0 min 25 W/m 8,4 km/h (2 Bft) 93,62 %
29.12.2016 15:56 4,8 C 5,0 C 1,7 C 81 % 0 lf 1037,8 hPa 0,0 l/m 0 min 0 min 25 W/m 14,6 km/h (3 Bft) 95,74 %
29.12.2016 15:58 4,8 C 4,4 C 1,7 C 81 % 0 lf 1037,7 hPa 0,0 l/m 0 min 0 min 23 W/m 10,5 km/h (2 Bft) 95,74 %
29.12.2016 16:00 4,7 C 4,4 C 1,1 C 81 % 0 lf 1037,7 hPa 0,0 l/m 0 min 0 min 22 W/m 10,5 km/h (2 Bft) 97,67 %
29.12.2016 16:02 4,7 C 4,4 C 1,1 C 82 % 0 lf 1037,6 hPa 0,0 l/m 0 min 0 min 20 W/m 14,6 km/h (3 Bft) 97,96 %
29.12.2016 16:04 4,7 C 4,4 C 1,1 C 82 % 0 lf 1037,7 hPa 0,0 l/m 0 min 0 min 19 W/m 8,4 km/h (2 Bft) 97,92 %
29.12.2016 16:06 4,7 C 4,4 C 1,1 C 82 % 0 lf 1037,6 hPa 0,0 l/m 0 min 0 min 19 W/m 10,5 km/h (2 Bft) 97,87 %
29.12.2016 16:08 4,6 C 4,4 C 1,1 C 82 % 0 lf 1037,6 hPa 0,0 l/m 0 min 0 min 18 W/m 8,4 km/h (2 Bft) 93,62 %
29.12.2016 16:10 4,6 C 4,4 C 1,1 C 82 % 0 lf 1037,6 hPa 0,0 l/m 0 min 0 min 18 W/m 8,4 km/h (2 Bft) 95,74 %
29.12.2016 16:12 4,6 C 4,4 C 0,6 C 82 % 0 lf 1037,6 hPa 0,0 l/m 0 min 0 min 18 W/m 8,4 km/h (2 Bft) 95,74 %
29.12.2016 16:14 4,6 C 4,4 C 0,6 C 82 % 0 lf 1037,6 hPa 0,0 l/m 0 min 0 min 16 W/m 8,4 km/h (2 Bft) 100,00 %
29.12.2016 16:16 4,6 C 4,4 C 0,6 C 82 % 0 lf 1037,7 hPa 0,0 l/m 0 min 0 min 16 W/m 8,4 km/h (2 Bft) 93,62 %
29.12.2016 16:18 4,5 C 4,4 C 0,6 C 82 % 0 lf 1037,7 hPa 0,0 l/m 0 min 0 min 15 W/m 8,4 km/h (2 Bft) 93,62 %
29.12.2016 16:20 4,5 C 4,4 C 0,6 C 82 % 0 lf 1037,6 hPa 0,0 l/m 0 min 0 min 14 W/m 4,2 km/h (1 Bft) 93,62 %
29.12.2016 16:22 4,4 C 4,4 C 0,6 C 82 % 0 lf 1037,6 hPa 0,0 l/m 0 min 0 min 14 W/m 4,2 km/h (1 Bft) 97,87 %
29.12.2016 16:24 4,4 C 3,9 C 0,0 C 82 % 0 lf 1037,6 hPa 0,0 l/m 0 min 0 min 12 W/m 4,2 km/h (1 Bft) 97,83 %
29.12.2016 16:26 4,4 C 3,9 C 0,0 C 82 % 0 lf 1037,7 hPa 0,0 l/m 0 min 0 min 12 W/m 6,3 km/h (2 Bft) 97,87 %
29.12.2016 16:28 4,4 C 3,9 C 0,0 C 82 % 0 lf 1037,7 hPa 0,0 l/m 0 min 0 min 12 W/m 6,3 km/h (2 Bft) 95,74 %
29.12.2016 16:30 4,4 C 3,9 C -0,6 C 82 % 0 lf 1037,7 hPa 0,0 l/m 0 min 0 min 11 W/m 6,3 km/h (2 Bft) 97,87 %
29.12.2016 16:32 4,3 C 3,9 C -0,6 C 82 % 0 lf 1037,7 hPa 0,0 l/m 0 min 0 min 11 W/m 8,4 km/h (2 Bft) 95,74 %
29.12.2016 16:34 4,3 C 3,9 C -0,6 C 82 % 0 lf 1037,7 hPa 0,0 l/m 0 min 0 min 10 W/m 8,4 km/h (2 Bft) 97,87 %
29.12.2016 16:36 4,3 C 3,9 C 0,0 C 82 % 0 lf 1037,7 hPa 0,0 l/m 0 min 0 min 9 W/m 6,3 km/h (2 Bft) 97,83 %
29.12.2016 16:38 4,2 C 3,9 C -0,6 C 82 % 0 lf 1037,8 hPa 0,0 l/m 0 min 0 min 9 W/m 6,3 km/h (2 Bft) 97,87 %
29.12.2016 16:40 4,2 C 3,9 C -0,6 C 82 % 0 lf 1037,7 hPa 0,0 l/m 0 min 0 min 8 W/m 8,4 km/h (2 Bft) 97,87 %
29.12.2016 16:42 4,2 C 3,9 C -0,6 C 83 % 0 lf 1037,7 hPa 0,0 l/m 0 min 0 min 7 W/m 8,4 km/h (2 Bft) 91,49 %
29.12.2016 16:44 4,2 C 3,9 C -0,6 C 83 % 0 lf 1037,7 hPa 0,0 l/m 0 min 0 min 7 W/m 6,3 km/h (2 Bft) 97,87 %
29.12.2016 16:46 4,1 C 3,9 C -0,6 C 83 % 0 lf 1037,7 hPa 0,0 l/m 0 min 0 min 7 W/m 6,3 km/h (2 Bft) 95,74 %
29.12.2016 16:48 4,1 C 3,9 C -0,6 C 83 % 0 lf 1037,6 hPa 0,0 l/m 0 min 0 min 5 W/m 8,4 km/h (2 Bft) 91,30 %
29.12.2016 16:50 4,1 C 3,3 C -0,6 C 83 % 0 lf 1037,6 hPa 0,0 l/m 0 min 0 min 5 W/m 8,4 km/h (2 Bft) 93,62 %
29.12.2016 16:52 4,0 C 3,3 C -0,6 C 83 % 0 lf 1037,6 hPa 0,0 l/m 0 min 0 min 5 W/m 8,4 km/h (2 Bft) 93,62 %
29.12.2016 16:54 4,0 C 3,3 C -1,1 C 83 % 0 lf 1037,6 hPa 0,0 l/m 0 min 0 min 5 W/m 8,4 km/h (2 Bft) 91,49 %
29.12.2016 16:56 3,9 C 2,8 C -1,1 C 83 % 0 lf 1037,6 hPa 0,0 l/m 0 min 0 min 4 W/m 6,3 km/h (2 Bft) 91,49 %
29.12.2016 16:58 3,9 C 2,8 C -1,1 C 83 % 0 lf 1037,6 hPa 0,0 l/m 0 min 0 min 0 W/m 8,4 km/h (2 Bft) 93,62 %
29.12.2016 17:00 3,9 C 2,8 C -1,1 C 83 % 0 lf 1037,6 hPa 0,0 l/m 0 min 0 min 0 W/m 6,3 km/h (2 Bft) 93,48 %
29.12.2016 17:02 3,8 C 2,8 C -1,1 C 83 % 0 lf 1037,5 hPa 0,0 l/m 0 min 0 min 0 W/m 4,2 km/h (1 Bft) 95,35 %
29.12.2016 17:04 3,8 C 2,8 C -1,7 C 83 % 0 lf 1037,5 hPa 0,0 l/m 0 min 0 min 0 W/m 4,2 km/h (1 Bft) 94,00 %
29.12.2016 17:06 3,8 C 2,8 C -1,7 C 83 % 0 lf 1037,5 hPa 0,0 l/m 0 min 0 min 0 W/m 6,3 km/h (2 Bft) 87,23 %
29.12.2016 17:08 3,7 C 2,8 C -1,7 C 83 % 0 lf 1037,6 hPa 0,0 l/m 0 min 0 min 0 W/m 6,3 km/h (2 Bft) 91,49 %
29.12.2016 17:10 3,7 C 2,8 C -1,7 C 83 % 0 lf 1037,5 hPa 0,0 l/m 0 min 0 min 0 W/m 6,3 km/h (2 Bft) 93,62 %
29.12.2016 17:12 3,6 C 2,8 C -1,7 C 84 % 0 lf 1037,5 hPa 0,0 l/m 0 min 0 min 0 W/m 6,3 km/h (2 Bft) 95,65 %
29.12.2016 17:14 3,6 C 2,8 C -1,7 C 84 % 0 lf 1037,5 hPa 0,0 l/m 0 min 0 min 0 W/m 6,3 km/h (2 Bft) 95,74 %
29.12.2016 17:16 3,6 C 2,8 C -1,7 C 84 % 0 lf 1037,5 hPa 0,0 l/m 0 min 0 min 0 W/m 8,4 km/h (2 Bft) 95,74 %
29.12.2016 17:18 3,5 C 2,8 C -1,7 C 84 % 0 lf 1037,5 hPa 0,0 l/m 0 min 0 min 0 W/m 8,4 km/h (2 Bft) 93,62 %
29.12.2016 17:20 3,4 C 2,8 C -1,7 C 84 % 0 lf 1037,5 hPa 0,0 l/m 0 min 0 min 0 W/m 8,4 km/h (2 Bft) 91,49 %
29.12.2016 17:22 3,4 C 2,8 C -1,7 C 84 % 0 lf 1037,5 hPa 0,0 l/m 0 min 0 min 0 W/m 10,5 km/h (2 Bft) 91,49 %
29.12.2016 17:24 3,4 C 2,8 C -1,7 C 84 % 0 lf 1037,4 hPa 0,0 l/m 0 min 0 min 0 W/m 8,4 km/h (2 Bft) 93,48 %
29.12.2016 17:26 3,3 C 2,8 C -1,7 C 84 % 0 lf 1037,5 hPa 0,0 l/m 0 min 0 min 0 W/m 8,4 km/h (2 Bft) 95,74 %
29.12.2016 17:28 3,2 C 2,8 C -1,7 C 84 % 0 lf 1037,5 hPa 0,0 l/m 0 min 0 min 0 W/m 8,4 km/h (2 Bft) 89,36 %
29.12.2016 17:30 3,2 C 2,8 C -1,1 C 84 % 0 lf 1037,5 hPa 0,0 l/m 0 min 0 min 0 W/m 6,3 km/h (2 Bft) 95,74 %
29.12.2016 17:32 3,2 C 2,8 C -1,1 C 84 % 0 lf 1037,4 hPa 0,0 l/m 0 min 0 min 0 W/m 8,4 km/h (2 Bft) 95,74 %
29.12.2016 17:34 3,2 C 3,3 C -0,6 C 85 % 0 lf 1037,4 hPa 0,0 l/m 0 min 0 min 0 W/m 10,5 km/h (2 Bft) 95,74 %
29.12.2016 17:36 3,1 C 3,3 C -0,6 C 85 % 0 lf 1037,5 hPa 0,0 l/m 0 min 0 min 0 W/m 8,4 km/h (2 Bft) 91,30 %
29.12.2016 17:38 3,1 C 3,3 C -0,6 C 85 % 0 lf 1037,5 hPa 0,0 l/m 0 min 0 min 0 W/m 8,4 km/h (2 Bft) 93,62 %
29.12.2016 17:40 3,1 C 3,3 C -0,6 C 85 % 0 lf 1037,5 hPa 0,0 l/m 0 min 0 min 0 W/m 8,4 km/h (2 Bft) 93,62 %
29.12.2016 17:42 3,0 C 2,8 C -0,6 C 85 % 0 lf 1037,4 hPa 0,0 l/m 0 min 0 min 0 W/m 8,4 km/h (2 Bft) 95,74 %
29.12.2016 17:44 3,0 C 2,8 C -0,6 C 85 % 0 lf 1037,4 hPa 0,0 l/m 0 min 0 min 0 W/m 6,3 km/h (2 Bft) 93,62 %
29.12.2016 17:46 3,0 C 2,8 C -0,6 C 86 % 0 lf 1037,5 hPa 0,0 l/m 0 min 0 min 0 W/m 4,2 km/h (1 Bft) 93,48 %
29.12.2016 17:48 2,9 C 2,8 C -1,1 C 86 % 0 lf 1037,5 hPa 0,0 l/m 0 min 0 min 0 W/m 6,3 km/h (2 Bft) 93,62 %
29.12.2016 17:50 2,9 C 2,2 C -1,7 C 86 % 0 lf 1037,4 hPa 0,0 l/m 0 min 0 min 0 W/m 4,2 km/h (1 Bft) 93,62 %
29.12.2016 17:52 2,9 C 2,2 C -1,7 C 86 % 0 lf 1037,5 hPa 0,0 l/m 0 min 0 min 0 W/m 6,3 km/h (2 Bft) 95,74 %
29.12.2016 17:54 2,9 C 2,2 C -1,7 C 86 % 0 lf 1037,5 hPa 0,0 l/m 0 min 0 min 0 W/m 6,3 km/h (2 Bft) 95,74 %
29.12.2016 17:56 2,9 C 2,2 C -1,7 C 86 % 0 lf 1037,5 hPa 0,0 l/m 0 min 0 min 0 W/m 6,3 km/h (2 Bft) 97,87 %
29.12.2016 17:58 2,9 C 2,2 C -2,2 C 86 % 0 lf 1037,5 hPa 0,0 l/m 0 min 0 min 2 W/m 6,3 km/h (2 Bft) 97,83 %
29.12.2016 18:00 2,8 C 2,2 C -2,2 C 86 % 0 lf 1037,5 hPa 0,0 l/m 0 min 0 min 0 W/m 8,4 km/h (2 Bft) 95,83 %
29.12.2016 18:02 2,8 C 2,2 C -1,7 C 86 % 0 lf 1037,4 hPa 0,0 l/m 0 min 0 min 0 W/m 8,4 km/h (2 Bft) 95,74 %
29.12.2016 18:06 2,7 C 2,2 C -1,7 C 86 % 0 lf 1037,4 hPa 0,0 l/m 0 min 0 min 0 W/m 8,4 km/h (2 Bft) 96,67 %
29.12.2016 18:08 2,7 C 2,8 C -1,7 C 86 % 0 lf 1037,4 hPa 0,0 l/m 0 min 0 min 0 W/m 8,4 km/h (2 Bft) 93,62 %
29.12.2016 18:10 2,7 C 2,8 C -1,7 C 86 % 0 lf 1037,4 hPa 0,0 l/m 0 min 0 min 0 W/m 6,3 km/h (2 Bft) 95,74 %
29.12.2016 18:12 2,7 C 2,2 C -2,2 C 86 % 0 lf 1037,4 hPa 0,0 l/m 0 min 0 min 0 W/m 4,2 km/h (1 Bft) 95,65 %
29.12.2016 18:14 2,6 C 2,2 C -2,2 C 86 % 0 lf 1037,4 hPa 0,0 l/m 0 min 0 min 0 W/m 4,2 km/h (1 Bft) 97,87 %
29.12.2016 18:16 2,6 C 2,2 C -2,2 C 86 % 0 lf 1037,4 hPa 0,0 l/m 0 min 0 min 0 W/m 4,2 km/h (1 Bft) 97,87 %
29.12.2016 18:18 2,6 C 2,2 C -1,7 C 86 % 0 lf 1037,5 hPa 0,0 l/m 0 min 0 min 0 W/m 6,3 km/h (2 Bft) 97,87 %
29.12.2016 18:20 2,6 C 2,2 C -2,2 C 86 % 0 lf 1037,4 hPa 0,0 l/m 0 min 0 min 0 W/m 6,3 km/h (2 Bft) 95,74 %
29.12.2016 18:22 2,5 C 2,2 C -1,7 C 87 % 0 lf 1037,4 hPa 0,0 l/m 0 min 0 min 0 W/m 8,4 km/h (2 Bft) 100,00 %
29.12.2016 18:24 2,5 C 2,2 C -2,2 C 87 % 0 lf 1037,5 hPa 0,0 l/m 0 min 0 min 0 W/m 6,3 km/h (2 Bft) 100,00 %
29.12.2016 18:26 2,5 C 2,2 C -1,7 C 87 % 0 lf 1037,5 hPa 0,0 l/m 0 min 0 min 0 W/m 6,3 km/h (2 Bft) 97,87 %
29.12.2016 18:28 2,4 C 2,2 C -2,2 C 87 % 0 lf 1037,5 hPa 0,0 l/m 0 min 0 min 4 W/m 8,4 km/h (2 Bft) 97,87 %
29.12.2016 18:30 2,4 C 2,2 C -2,2 C 87 % 0 lf 1037,4 hPa 0,0 l/m 0 min 0 min 2 W/m 6,3 km/h (2 Bft) 95,74 %
29.12.2016 18:32 2,4 C 1,7 C -2,2 C 87 % 0 lf 1037,5 hPa 0,0 l/m 0 min 0 min 0 W/m 6,3 km/h (2 Bft) 100,00 %
29.12.2016 18:34 2,4 C 1,1 C -2,2 C 87 % 0 lf 1037,4 hPa 0,0 l/m 0 min 0 min 4 W/m 6,3 km/h (2 Bft) 97,83 %
29.12.2016 18:36 2,3 C 1,1 C -2,2 C 87 % 0 lf 1037,4 hPa 0,0 l/m 0 min 0 min 5 W/m 4,2 km/h (1 Bft) 95,74 %
29.12.2016 18:38 2,3 C 1,7 C -2,2 C 87 % 0 lf 1037,4 hPa 0,0 l/m 0 min 0 min 0 W/m 8,4 km/h (2 Bft) 100,00 %
29.12.2016 18:40 2,3 C 1,7 C -2,2 C 87 % 0 lf 1037,4 hPa 0,0 l/m 0 min 0 min 0 W/m 4,2 km/h (1 Bft) 97,87 %
29.12.2016 18:42 2,3 C 1,7 C -2,2 C 87 % 0 lf 1037,4 hPa 0,0 l/m 0 min 0 min 0 W/m 8,4 km/h (2 Bft) 100,00 %
29.12.2016 18:44 2,2 C 2,2 C -2,2 C 87 % 0 lf 1037,4 hPa 0,0 l/m 0 min 0 min 0 W/m 8,4 km/h (2 Bft) 97,87 %
29.12.2016 18:46 2,2 C 2,2 C -2,2 C 87 % 0 lf 1037,4 hPa 0,0 l/m 0 min 0 min 0 W/m 8,4 km/h (2 Bft) 97,83 %
29.12.2016 18:48 2,2 C 1,7 C -2,2 C 87 % 0 lf 1037,4 hPa 0,0 l/m 0 min 0 min 0 W/m 8,4 km/h (2 Bft) 97,87 %
29.12.2016 18:50 2,2 C 1,7 C -2,2 C 87 % 0 lf 1037,4 hPa 0,0 l/m 0 min 0 min 0 W/m 6,3 km/h (2 Bft) 100,00 %
29.12.2016 18:52 2,1 C 2,2 C -2,2 C 87 % 0 lf 1037,4 hPa 0,0 l/m 0 min 0 min 0 W/m 6,3 km/h (2 Bft) 95,74 %
29.12.2016 18:54 2,1 C 2,2 C -2,2 C 88 % 0 lf 1037,4 hPa 0,0 l/m 0 min 0 min 0 W/m 6,3 km/h (2 Bft) 97,87 %
29.12.2016 18:56 2,1 C 2,2 C -2,2 C 88 % 0 lf 1037,4 hPa 0,0 l/m 0 min 0 min 0 W/m 6,3 km/h (2 Bft) 100,00 %
29.12.2016 18:58 2,1 C 2,2 C -2,2 C 88 % 0 lf 1037,4 hPa 0,0 l/m 0 min 0 min 0 W/m 6,3 km/h (2 Bft) 100,00 %
29.12.2016 19:00 2,1 C 2,2 C -2,2 C 88 % 0 lf 1037,4 hPa 0,0 l/m 0 min 0 min 0 W/m 6,3 km/h (2 Bft) 96,00 %
29.12.2016 19:02 2,1 C 2,2 C -2,2 C 88 % 0 lf 1037,4 hPa 0,0 l/m 0 min 0 min 0 W/m 8,4 km/h (2 Bft) 95,83 %
29.12.2016 19:04 2,1 C 2,2 C -2,2 C 88 % 0 lf 1037,4 hPa 0,0 l/m 0 min 0 min 0 W/m 8,4 km/h (2 Bft) 100,00 %
29.12.2016 19:06 2,1 C 2,2 C -2,2 C 88 % 0 lf 1037,3 hPa 0,0 l/m 0 min 0 min 0 W/m 8,4 km/h (2 Bft) 95,74 %
29.12.2016 19:08 2,0 C 2,2 C -2,2 C 88 % 0 lf 1037,3 hPa 0,0 l/m 0 min 0 min 0 W/m 8,4 km/h (2 Bft) 100,00 %
29.12.2016 19:10 2,0 C 2,2 C -1,7 C 89 % 0 lf 1037,3 hPa 0,0 l/m 0 min 0 min 0 W/m 8,4 km/h (2 Bft) 100,00 %
29.12.2016 19:12 2,0 C 2,2 C -1,7 C 89 % 0 lf 1037,4 hPa 0,0 l/m 0 min 0 min 0 W/m 8,4 km/h (2 Bft) 95,74 %
29.12.2016 19:14 2,0 C 2,2 C -1,7 C 89 % 0 lf 1037,3 hPa 0,0 l/m 0 min 0 min 0 W/m 8,4 km/h (2 Bft) 97,87 %
29.12.2016 19:16 2,0 C 2,2 C -1,7 C 89 % 0 lf 1037,3 hPa 0,0 l/m 0 min 0 min 0 W/m 4,2 km/h (1 Bft) 93,62 %
29.12.2016 19:18 2,0 C 1,7 C -1,7 C 89 % 0 lf 1037,4 hPa 0,0 l/m 0 min 0 min 0 W/m 6,3 km/h (2 Bft) 100,00 %
29.12.2016 19:20 2,0 C 1,7 C -2,2 C 89 % 0 lf 1037,3 hPa 0,0 l/m 0 min 0 min 0 W/m 6,3 km/h (2 Bft) 100,00 %
29.12.2016 19:22 2,0 C 1,7 C -2,2 C 89 % 0 lf 1037,3 hPa 0,0 l/m 0 min 0 min 0 W/m 10,5 km/h (2 Bft) 95,74 %
29.12.2016 19:24 1,9 C 2,2 C -1,7 C 89 % 0 lf 1037,3 hPa 0,0 l/m 0 min 0 min 0 W/m 12,6 km/h (3 Bft) 97,87 %
29.12.2016 19:26 2,0 C 2,2 C -1,7 C 89 % 0 lf 1037,4 hPa 0,0 l/m 0 min 0 min 0 W/m 12,6 km/h (3 Bft) 93,62 %
29.12.2016 19:28 1,9 C 2,2 C -1,1 C 89 % 0 lf 1037,4 hPa 0,0 l/m 0 min 0 min 0 W/m 10,5 km/h (2 Bft) 97,87 %
29.12.2016 19:30 1,9 C 2,2 C -1,1 C 89 % 0 lf 1037,3 hPa 0,0 l/m 0 min 0 min 0 W/m 8,4 km/h (2 Bft) 95,74 %
29.12.2016 19:32 1,9 C 2,2 C -1,1 C 89 % 0 lf 1037,3 hPa 0,0 l/m 0 min 0 min 0 W/m 10,5 km/h (2 Bft) 95,65 %
29.12.2016 19:34 1,9 C 2,2 C -1,1 C 89 % 0 lf 1037,3 hPa 0,0 l/m 0 min 0 min 0 W/m 10,5 km/h (2 Bft) 97,87 %
29.12.2016 19:35 2,0 C 2,8 C -1,1 C 89 % 0 lf 1037,3 hPa 0,0 l/m 0 min 0 min 0 W/m 10,5 km/h (2 Bft) 95,65 %
29.12.2016 19:36 2,0 C 2,8 C -1,1 C 90 % 0 lf 1037,4 hPa 0,0 l/m 0 min 0 min 0 W/m 8,4 km/h (2 Bft) 95,65 %
29.12.2016 19:37 2,0 C 2,2 C -1,1 C 90 % 0 lf 1037,3 hPa 0,0 l/m 0 min 0 min 0 W/m 10,5 km/h (2 Bft) 95,65 %
29.12.2016 19:38 2,0 C 2,2 C -1,1 C 90 % 0 lf 1037,3 hPa 0,0 l/m 0 min 0 min 0 W/m 8,4 km/h (2 Bft) 100,00 %
29.12.2016 19:39 2,0 C 2,2 C -1,1 C 90 % 0 lf 1037,3 hPa 0,0 l/m 0 min 0 min 0 W/m 6,3 km/h (2 Bft) 95,65 %
29.12.2016 19:40 2,0 C 2,2 C -1,1 C 90 % 0 lf 1037,3 hPa 0,0 l/m 0 min 0 min 0 W/m 10,5 km/h (2 Bft) 95,65 %
29.12.2016 19:41 2,0 C 2,2 C -1,1 C 90 % 0 lf 1037,3 hPa 0,0 l/m 0 min 0 min 0 W/m 8,4 km/h (2 Bft) 95,65 %
29.12.2016 19:42 2,0 C 2,2 C -1,1 C 90 % 0 lf 1037,3 hPa 0,0 l/m 0 min 0 min 0 W/m 8,4 km/h (2 Bft) 91,30 %
29.12.2016 19:43 2,0 C 2,2 C -1,1 C 90 % 0 lf 1037,3 hPa 0,0 l/m 0 min 0 min 0 W/m 6,3 km/h (2 Bft) 100,00 %
29.12.2016 19:44 2,0 C 2,2 C -1,1 C 90 % 0 lf 1037,3 hPa 0,0 l/m 0 min 0 min 0 W/m 8,4 km/h (2 Bft) 91,30 %
29.12.2016 19:45 2,0 C 2,2 C -1,1 C 90 % 0 lf 1037,3 hPa 0,0 l/m 0 min 0 min 0 W/m 8,4 km/h (2 Bft) 100,00 %
29.12.2016 19:48 1,9 C 2,2 C -1,1 C 90 % 0 lf 1037,3 hPa 0,0 l/m 0 min 0 min 0 W/m 8,4 km/h (2 Bft) 93,62 %
29.12.2016 19:50 1,9 C 2,2 C -1,1 C 90 % 0 lf 1037,3 hPa 0,0 l/m 0 min 0 min 0 W/m 10,5 km/h (2 Bft) 87,23 %
29.12.2016 19:52 2,0 C 2,2 C -0,6 C 90 % 0 lf 1037,3 hPa 0,0 l/m 0 min 0 min 0 W/m 10,5 km/h (2 Bft) 92,86 %
29.12.2016 19:54 2,0 C 2,2 C -0,6 C 90 % 0 lf 1037,3 hPa 0,0 l/m 0 min 0 min 0 W/m 8,4 km/h (2 Bft) 94,74 %
29.12.2016 19:56 2,0 C 2,2 C -0,6 C 90 % 0 lf 1037,3 hPa 0,0 l/m 0 min 0 min 0 W/m 14,6 km/h (3 Bft) 93,62 %
29.12.2016 19:58 2,0 C 2,2 C -0,6 C 90 % 0 lf 1037,3 hPa 0,0 l/m 0 min 0 min 0 W/m 12,6 km/h (3 Bft) 93,62 %
29.12.2016 20:00 2,0 C 2,2 C -0,6 C 90 % 0 lf 1037,3 hPa 0,0 l/m 0 min 0 min 0 W/m 10,5 km/h (2 Bft) 90,91 %
29.12.2016 20:02 2,1 C 2,2 C -0,6 C 90 % 0 lf 1037,3 hPa 0,0 l/m 0 min 0 min 0 W/m 12,6 km/h (3 Bft) 94,74 %
29.12.2016 20:04 2,1 C 2,2 C -0,6 C 90 % 0 lf 1037,3 hPa 0,0 l/m 0 min 0 min 0 W/m 12,6 km/h (3 Bft) 92,00 %
29.12.2016 20:06 2,0 C 2,2 C -0,6 C 90 % 0 lf 1037,3 hPa 0,0 l/m 0 min 0 min 0 W/m 10,5 km/h (2 Bft) 92,00 %
29.12.2016 20:08 2,1 C 2,2 C -0,6 C 90 % 0 lf 1037,3 hPa 0,0 l/m 0 min 0 min 0 W/m 10,5 km/h (2 Bft) 90,91 %
29.12.2016 20:10 2,1 C 2,2 C 0,0 C 90 % 0 lf 1037,2 hPa 0,0 l/m 0 min 0 min 0 W/m 16,7 km/h (3 Bft) 89,80 %
29.12.2016 20:12 2,1 C 2,2 C 0,0 C 90 % 0 lf 1037,2 hPa 0,0 l/m 0 min 0 min 0 W/m 8,4 km/h (2 Bft) 91,49 %
29.12.2016 20:14 2,1 C 2,2 C 0,0 C 90 % 0 lf 1037,1 hPa 0,0 l/m 0 min 0 min 0 W/m 14,6 km/h (3 Bft) 92,86 %
29.12.2016 20:16 2,1 C 2,2 C 0,0 C 90 % 0 lf 1037,2 hPa 0,0 l/m 0 min 0 min 0 W/m 12,6 km/h (3 Bft) 92,00 %
29.12.2016 20:18 2,1 C 2,2 C 0,0 C 90 % 0 lf 1037,1 hPa 0,0 l/m 0 min 0 min 0 W/m 14,6 km/h (3 Bft) 97,87 %
29.12.2016 20:20 2,1 C 2,2 C 0,0 C 90 % 0 lf 1037,1 hPa 0,0 l/m 0 min 0 min 0 W/m 12,6 km/h (3 Bft) 95,92 %
29.12.2016 20:22 2,1 C 2,2 C 0,0 C 90 % 0 lf 1037,2 hPa 0,0 l/m 0 min 0 min 0 W/m 14,6 km/h (3 Bft) 97,83 %
29.12.2016 20:24 2,1 C 2,8 C 0,0 C 90 % 0 lf 1037,1 hPa 0,0 l/m 0 min 0 min 0 W/m 12,6 km/h (3 Bft) 100,00 %
29.12.2016 20:26 2,1 C 2,8 C 0,0 C 91 % 0 lf 1037,1 hPa 0,0 l/m 0 min 0 min 0 W/m 14,6 km/h (3 Bft) 95,24 %
29.12.2016 20:28 2,1 C 2,2 C 0,0 C 91 % 0 lf 1037,2 hPa 0,0 l/m 0 min 0 min 0 W/m 8,4 km/h (2 Bft) 93,62 %
29.12.2016 20:30 2,1 C 2,2 C 0,0 C 90 % 0 lf 1037,3 hPa 0,0 l/m 0 min 0 min 0 W/m 14,6 km/h (3 Bft) 100,00 %
29.12.2016 20:32 2,1 C 2,2 C 0,0 C 90 % 0 lf 1037,2 hPa 0,0 l/m 0 min 0 min 0 W/m 16,7 km/h (3 Bft) 100,00 %
29.12.2016 20:34 2,1 C 2,2 C 0,0 C 90 % 0 lf 1037,2 hPa 0,0 l/m 0 min 0 min 0 W/m 10,5 km/h (2 Bft) 100,00 %
29.12.2016 20:36 2,1 C 2,8 C 0,0 C 90 % 0 lf 1037,2 hPa 0,0 l/m 0 min 0 min 0 W/m 14,6 km/h (3 Bft) 95,74 %
29.12.2016 20:38 2,1 C 2,8 C 0,0 C 91 % 0 lf 1037,2 hPa 0,0 l/m 0 min 0 min 0 W/m 14,6 km/h (3 Bft) 100,00 %
29.12.2016 20:40 2,1 C 2,2 C 0,0 C 91 % 0 lf 1037,1 hPa 0,0 l/m 0 min 0 min 0 W/m 14,6 km/h (3 Bft) 98,00 %
29.12.2016 20:42 2,2 C 2,8 C 0,0 C 91 % 0 lf 1037,2 hPa 0,0 l/m 0 min 0 min 0 W/m 14,6 km/h (3 Bft) 95,92 %
29.12.2016 20:44 2,2 C 2,8 C 0,0 C 91 % 0 lf 1037,1 hPa 0,0 l/m 0 min 0 min 0 W/m 14,6 km/h (3 Bft) 97,83 %
29.12.2016 20:46 2,2 C 2,8 C 0,0 C 90 % 0 lf 1037,2 hPa 0,0 l/m 0 min 0 min 0 W/m 14,6 km/h (3 Bft) 100,00 %
29.12.2016 20:48 2,2 C 2,8 C 0,0 C 90 % 0 lf 1037,1 hPa 0,0 l/m 0 min 0 min 0 W/m 18,8 km/h (3 Bft) 98,00 %
29.12.2016 20:50 2,2 C 2,8 C 0,0 C 90 % 0 lf 1037,2 hPa 0,0 l/m 0 min 0 min 0 W/m 14,6 km/h (3 Bft) 100,00 %
29.12.2016 20:52 2,2 C 2,2 C 0,0 C 90 % 0 lf 1037,3 hPa 0,0 l/m 0 min 0 min 5 W/m 10,5 km/h (2 Bft) 97,87 %
29.12.2016 20:54 2,2 C 2,2 C 0,0 C 90 % 0 lf 1037,3 hPa 0,0 l/m 0 min 0 min 5 W/m 12,6 km/h (3 Bft) 97,87 %
29.12.2016 20:56 2,2 C 2,2 C 0,0 C 90 % 0 lf 1037,3 hPa 0,0 l/m 0 min 0 min 5 W/m 10,5 km/h (2 Bft) 97,56 %
29.12.2016 20:58 2,2 C 2,2 C 0,0 C 90 % 0 lf 1037,3 hPa 0,0 l/m 0 min 0 min 5 W/m 14,6 km/h (3 Bft) 96,00 %
29.12.2016 21:00 2,2 C 2,2 C 0,0 C 90 % 0 lf 1037,3 hPa 0,0 l/m 0 min 0 min 5 W/m 12,6 km/h (3 Bft) 97,96 %
29.12.2016 21:02 2,2 C 2,2 C -0,6 C 90 % 0 lf 1037,3 hPa 0,0 l/m 0 min 0 min 5 W/m 10,5 km/h (2 Bft) 97,87 %
29.12.2016 21:04 2,2 C 2,2 C -0,6 C 90 % 0 lf 1037,3 hPa 0,0 l/m 0 min 0 min 5 W/m 10,5 km/h (2 Bft) 97,62 %
29.12.2016 21:06 2,2 C 2,2 C -0,6 C 90 % 0 lf 1037,3 hPa 0,0 l/m 0 min 0 min 5 W/m 10,5 km/h (2 Bft) 97,96 %
29.12.2016 21:08 2,2 C 2,2 C -0,6 C 90 % 0 lf 1037,3 hPa 0,0 l/m 0 min 0 min 5 W/m 6,3 km/h (2 Bft) 97,96 %
29.12.2016 21:10 2,2 C 2,2 C -1,1 C 90 % 0 lf 1037,3 hPa 0,0 l/m 0 min 0 min 5 W/m 8,4 km/h (2 Bft) 93,62 %
29.12.2016 21:12 2,2 C 2,2 C -1,1 C 90 % 0 lf 1037,3 hPa 0,0 l/m 0 min 0 min 5 W/m 10,5 km/h (2 Bft) 97,87 %
29.12.2016 21:14 2,2 C 2,2 C -1,1 C 90 % 0 lf 1037,3 hPa 0,0 l/m 0 min 0 min 5 W/m 8,4 km/h (2 Bft) 95,24 %
29.12.2016 21:16 2,1 C 2,2 C -1,1 C 90 % 0 lf 1037,2 hPa 0,0 l/m 0 min 0 min 5 W/m 8,4 km/h (2 Bft) 93,62 %
29.12.2016 21:18 2,1 C 2,2 C -0,6 C 90 % 0 lf 1037,2 hPa 0,0 l/m 0 min 0 min 0 W/m 10,5 km/h (2 Bft) 95,92 %
29.12.2016 21:20 2,1 C 2,2 C -0,6 C 90 % 0 lf 1037,1 hPa 0,0 l/m 0 min 0 min 0 W/m 6,3 km/h (2 Bft) 97,96 %
29.12.2016 21:22 2,1 C 1,7 C -0,6 C 90 % 0 lf 1037,1 hPa 0,0 l/m 0 min 0 min 0 W/m 10,5 km/h (2 Bft) 95,74 %
29.12.2016 21:24 2,1 C 1,7 C -0,6 C 90 % 0 lf 1037,1 hPa 0,0 l/m 0 min 0 min 0 W/m 10,5 km/h (2 Bft) 97,62 %
29.12.2016 21:26 2,0 C 1,7 C -0,6 C 90 % 0 lf 1037,1 hPa 0,0 l/m 0 min 0 min 0 W/m 12,6 km/h (3 Bft) 95,74 %
29.12.2016 21:28 2,0 C 2,2 C -0,6 C 90 % 0 lf 1037,1 hPa 0,0 l/m 0 min 0 min 0 W/m 12,6 km/h (3 Bft) 94,00 %
29.12.2016 21:30 1,9 C 1,7 C -0,6 C 90 % 0 lf 1037,1 hPa 0,0 l/m 0 min 0 min 0 W/m 10,5 km/h (2 Bft) 97,96 %
29.12.2016 21:32 1,9 C 1,7 C -0,6 C 90 % 0 lf 1037,1 hPa 0,0 l/m 0 min 0 min 0 W/m 14,6 km/h (3 Bft) 93,48 %
29.12.2016 21:34 1,9 C 1,7 C -0,6 C 90 % 0 lf 1037,0 hPa 0,0 l/m 0 min 0 min 0 W/m 14,6 km/h (3 Bft) 97,62 %
29.12.2016 21:36 1,9 C 1,7 C -0,6 C 90 % 0 lf 1037,0 hPa 0,0 l/m 0 min 0 min 0 W/m 14,6 km/h (3 Bft) 96,00 %
29.12.2016 21:38 1,9 C 1,7 C -0,6 C 90 % 0 lf 1037,0 hPa 0,0 l/m 0 min 0 min 0 W/m 16,7 km/h (3 Bft) 93,88 %
29.12.2016 21:40 1,9 C 1,7 C -0,6 C 90 % 0 lf 1037,0 hPa 0,0 l/m 0 min 0 min 0 W/m 14,6 km/h (3 Bft) 95,74 %
29.12.2016 21:42 1,8 C 1,7 C -0,6 C 90 % 0 lf 1037,0 hPa 0,0 l/m 0 min 0 min 0 W/m 10,5 km/h (2 Bft) 95,65 %
29.12.2016 21:44 1,8 C 1,7 C -0,6 C 90 % 0 lf 1037,0 hPa 0,0 l/m 0 min 0 min 0 W/m 14,6 km/h (3 Bft) 95,24 %
29.12.2016 21:46 1,8 C 1,7 C -0,6 C 91 % 0 lf 1037,0 hPa 0,0 l/m 0 min 0 min 0 W/m 16,7 km/h (3 Bft) 96,00 %
29.12.2016 21:48 1,8 C 1,7 C -0,6 C 91 % 0 lf 1037,0 hPa 0,0 l/m 0 min 0 min 0 W/m 20,9 km/h (4 Bft) 95,92 %
29.12.2016 21:50 1,8 C 1,7 C -0,6 C 91 % 0 lf 1037,1 hPa 0,0 l/m 0 min 0 min 0 W/m 18,8 km/h (3 Bft) 89,36 %
29.12.2016 21:52 1,7 C 1,7 C -0,6 C 91 % 0 lf 1037,1 hPa 0,0 l/m 0 min 0 min 0 W/m 16,7 km/h (3 Bft) 91,49 %
29.12.2016 21:54 1,7 C 1,7 C -0,6 C 91 % 0 lf 1037,1 hPa 0,0 l/m 0 min 0 min 0 W/m 18,8 km/h (3 Bft) 95,12 %
29.12.2016 21:56 1,7 C 1,7 C -0,6 C 91 % 0 lf 1037,1 hPa 0,0 l/m 0 min 0 min 0 W/m 12,6 km/h (3 Bft) 94,00 %
29.12.2016 21:58 1,7 C 1,7 C -0,6 C 91 % 0 lf 1037,1 hPa 0,0 l/m 0 min 0 min 0 W/m 14,6 km/h (3 Bft) 93,88 %
29.12.2016 22:00 1,7 C 1,7 C -0,6 C 91 % 0 lf 1037,0 hPa 0,0 l/m 0 min 0 min 0 W/m 12,6 km/h (3 Bft) 95,74 %
29.12.2016 22:02 1,7 C 1,7 C -0,6 C 91 % 0 lf 1037,1 hPa 0,0 l/m 0 min 0 min 0 W/m 14,6 km/h (3 Bft) 93,62 %
29.12.2016 22:04 1,7 C 1,7 C -0,6 C 91 % 0 lf 1037,1 hPa 0,0 l/m 0 min 0 min 0 W/m 14,6 km/h (3 Bft) 90,48 %
29.12.2016 22:06 1,7 C 1,7 C -0,6 C 91 % 0 lf 1037,1 hPa 0,0 l/m 0 min 0 min 0 W/m 12,6 km/h (3 Bft) 93,88 %
29.12.2016 22:08 1,6 C 1,7 C -0,6 C 91 % 0 lf 1037,1 hPa 0,0 l/m 0 min 0 min 0 W/m 10,5 km/h (2 Bft) 93,88 %
29.12.2016 22:10 1,6 C 1,7 C -1,1 C 91 % 0 lf 1037,0 hPa 0,0 l/m 0 min 0 min 0 W/m 10,5 km/h (2 Bft) 93,62 %
29.12.2016 22:12 1,6 C 1,7 C -0,6 C 91 % 0 lf 1037,1 hPa 0,0 l/m 0 min 0 min 0 W/m 8,4 km/h (2 Bft) 97,62 %
29.12.2016 22:14 1,6 C 1,1 C -1,1 C 91 % 0 lf 1037,1 hPa 0,0 l/m 0 min 0 min 0 W/m 6,3 km/h (2 Bft) 92,00 %
29.12.2016 22:16 1,6 C 1,1 C -1,1 C 91 % 0 lf 1037,1 hPa 0,0 l/m 0 min 0 min 0 W/m 8,4 km/h (2 Bft) 97,96 %
29.12.2016 22:18 1,5 C 1,1 C -1,1 C 91 % 0 lf 1037,1 hPa 0,0 l/m 0 min 0 min 0 W/m 6,3 km/h (2 Bft) 93,48 %
29.12.2016 22:20 1,5 C 1,1 C -1,1 C 91 % 0 lf 1037,1 hPa 0,0 l/m 0 min 0 min 0 W/m 10,5 km/h (2 Bft) 97,62 %
29.12.2016 22:22 1,4 C 1,1 C -1,1 C 91 % 0 lf 1037,1 hPa 0,0 l/m 0 min 0 min 0 W/m 8,4 km/h (2 Bft) 94,00 %
29.12.2016 22:24 1,4 C 1,1 C -1,1 C 91 % 0 lf 1037,1 hPa 0,0 l/m 0 min 0 min 0 W/m 8,4 km/h (2 Bft) 93,88 %
29.12.2016 22:26 1,4 C 1,1 C -1,1 C 91 % 0 lf 1037,1 hPa 0,0 l/m 0 min 0 min 0 W/m 8,4 km/h (2 Bft) 97,87 %
29.12.2016 22:28 1,4 C 1,1 C -1,1 C 91 % 0 lf 1037,1 hPa 0,0 l/m 0 min 0 min 0 W/m 6,3 km/h (2 Bft) 97,62 %
29.12.2016 22:30 1,4 C 1,1 C -1,1 C 91 % 0 lf 1037,1 hPa 0,0 l/m 0 min 0 min 0 W/m 10,5 km/h (2 Bft) 95,92 %
29.12.2016 22:32 1,4 C 1,1 C -1,7 C 91 % 0 lf 1037,1 hPa 0,0 l/m 0 min 0 min 0 W/m 10,5 km/h (2 Bft) 93,88 %
29.12.2016 22:34 1,3 C 1,1 C -1,7 C 91 % 0 lf 1037,1 hPa 0,0 l/m 0 min 0 min 0 W/m 8,4 km/h (2 Bft) 93,62 %
29.12.2016 22:36 1,3 C 1,1 C -1,7 C 91 % 0 lf 1037,1 hPa 0,0 l/m 0 min 0 min 0 W/m 10,5 km/h (2 Bft) 92,86 %
29.12.2016 22:38 1,3 C 1,1 C -1,1 C 91 % 0 lf 1037,1 hPa 0,0 l/m 0 min 0 min 0 W/m 10,5 km/h (2 Bft) 92,00 %
29.12.2016 22:40 1,2 C 1,1 C -1,1 C 91 % 0 lf 1037,1 hPa 0,0 l/m 0 min 0 min 0 W/m 12,6 km/h (3 Bft) 95,92 %
29.12.2016 22:42 1,2 C 1,1 C -1,1 C 91 % 0 lf 1037,1 hPa 0,0 l/m 0 min 0 min 0 W/m 10,5 km/h (2 Bft) 91,30 %
29.12.2016 22:44 1,2 C 1,1 C -1,1 C 91 % 0 lf 1037,1 hPa 0,0 l/m 0 min 0 min 0 W/m 14,6 km/h (3 Bft) 95,24 %
29.12.2016 22:46 1,2 C 1,1 C -1,1 C 91 % 0 lf 1037,0 hPa 0,0 l/m 0 min 0 min 0 W/m 8,4 km/h (2 Bft) 98,00 %
29.12.2016 22:48 1,1 C 1,1 C -1,1 C 91 % 0 lf 1037,0 hPa 0,0 l/m 0 min 0 min 0 W/m 12,6 km/h (3 Bft) 93,62 %
29.12.2016 22:50 1,1 C 1,1 C -1,1 C 91 % 0 lf 1037,0 hPa 0,0 l/m 0 min 0 min 0 W/m 12,6 km/h (3 Bft) 95,92 %
29.12.2016 22:52 1,1 C 1,1 C -1,1 C 91 % 0 lf 1037,1 hPa 0,0 l/m 0 min 0 min 0 W/m 12,6 km/h (3 Bft) 97,87 %
29.12.2016 22:54 1,1 C 1,1 C -1,1 C 91 % 0 lf 1037,1 hPa 0,0 l/m 0 min 0 min 0 W/m 14,6 km/h (3 Bft) 97,83 %
29.12.2016 22:56 1,1 C 1,1 C -1,1 C 92 % 0 lf 1037,0 hPa 0,0 l/m 0 min 0 min 0 W/m 14,6 km/h (3 Bft) 97,62 %
29.12.2016 22:58 1,1 C 1,1 C -1,1 C 92 % 0 lf 1037,1 hPa 0,0 l/m 0 min 0 min 0 W/m 14,6 km/h (3 Bft) 92,00 %
29.12.2016 23:00 1,1 C 1,1 C -1,1 C 92 % 0 lf 1037,1 hPa 0,0 l/m 0 min 0 min 0 W/m 14,6 km/h (3 Bft) 97,96 %
29.12.2016 23:02 1,1 C 1,1 C -1,1 C 92 % 0 lf 1037,2 hPa 0,0 l/m 0 min 0 min 0 W/m 16,7 km/h (3 Bft) 93,62 %
29.12.2016 23:04 1,0 C 1,1 C -1,1 C 92 % 0 lf 1037,1 hPa 0,0 l/m 0 min 0 min 0 W/m 16,7 km/h (3 Bft) 92,68 %
29.12.2016 23:06 1,0 C 1,1 C -1,1 C 92 % 0 lf 1037,2 hPa 0,0 l/m 0 min 0 min 0 W/m 14,6 km/h (3 Bft) 95,74 %
29.12.2016 23:08 1,0 C 1,1 C -1,1 C 92 % 0 lf 1037,2 hPa 0,0 l/m 0 min 0 min 0 W/m 14,6 km/h (3 Bft) 96,00 %
29.12.2016 23:10 1,0 C 1,1 C -1,1 C 92 % 0 lf 1037,2 hPa 0,0 l/m 0 min 0 min 0 W/m 12,6 km/h (3 Bft) 97,96 %
29.12.2016 23:12 1,0 C 1,1 C -1,1 C 92 % 0 lf 1037,3 hPa 0,0 l/m 0 min 0 min 0 W/m 14,6 km/h (3 Bft) 95,74 %
29.12.2016 23:14 1,0 C 1,1 C -1,1 C 92 % 0 lf 1037,3 hPa 0,0 l/m 0 min 0 min 0 W/m 14,6 km/h (3 Bft) 97,62 %
29.12.2016 23:16 1,0 C 1,1 C -1,1 C 92 % 0 lf 1037,3 hPa 0,0 l/m 0 min 0 min 0 W/m 12,6 km/h (3 Bft) 95,92 %
29.12.2016 23:18 1,0 C 1,1 C -1,1 C 92 % 0 lf 1037,3 hPa 0,0 l/m 0 min 0 min 0 W/m 14,6 km/h (3 Bft) 95,92 %
29.12.2016 23:20 1,0 C 1,1 C -1,1 C 92 % 0 lf 1037,3 hPa 0,0 l/m 0 min 0 min 0 W/m 12,6 km/h (3 Bft) 95,74 %
29.12.2016 23:22 1,0 C 1,1 C -1,1 C 92 % 0 lf 1037,3 hPa 0,0 l/m 0 min 0 min 0 W/m 14,6 km/h (3 Bft) 97,87 %
29.12.2016 23:24 1,0 C 1,1 C -1,1 C 92 % 0 lf 1037,3 hPa 0,0 l/m 0 min 0 min 0 W/m 12,6 km/h (3 Bft) 97,62 %
29.12.2016 23:26 1,0 C 1,1 C -1,1 C 92 % 0 lf 1037,3 hPa 0,0 l/m 0 min 0 min 0 W/m 16,7 km/h (3 Bft) 100,00 %
29.12.2016 23:28 1,0 C 1,1 C -1,1 C 92 % 0 lf 1037,3 hPa 0,0 l/m 0 min 0 min 0 W/m 12,6 km/h (3 Bft) 95,83 %
29.12.2016 23:30 1,0 C 1,1 C -1,1 C 92 % 0 lf 1037,3 hPa 0,0 l/m 0 min 0 min 0 W/m 14,6 km/h (3 Bft) 100,00 %
29.12.2016 23:32 1,0 C 1,1 C -1,1 C 92 % 0 lf 1037,4 hPa 0,0 l/m 0 min 0 min 0 W/m 14,6 km/h (3 Bft) 92,86 %
29.12.2016 23:34 1,0 C 1,1 C -1,1 C 92 % 0 lf 1037,3 hPa 0,0 l/m 0 min 0 min 0 W/m 12,6 km/h (3 Bft) 98,00 %
29.12.2016 23:36 1,0 C 1,1 C -1,1 C 92 % 0 lf 1037,3 hPa 0,0 l/m 0 min 0 min 0 W/m 14,6 km/h (3 Bft) 89,80 %
29.12.2016 23:38 1,0 C 1,1 C -1,1 C 92 % 0 lf 1037,4 hPa 0,0 l/m 0 min 0 min 0 W/m 16,7 km/h (3 Bft) 100,00 %
29.12.2016 23:40 1,0 C 1,1 C -1,1 C 92 % 0 lf 1037,4 hPa 0,0 l/m 0 min 0 min 0 W/m 12,6 km/h (3 Bft) 92,68 %
29.12.2016 23:42 1,0 C 1,1 C -1,1 C 93 % 0 lf 1037,4 hPa 0,0 l/m 0 min 0 min 0 W/m 10,5 km/h (2 Bft) 98,00 %
29.12.2016 23:44 1,0 C 1,1 C -1,1 C 93 % 0 lf 1037,4 hPa 0,0 l/m 0 min 0 min 0 W/m 12,6 km/h (3 Bft) 97,96 %
29.12.2016 23:46 1,0 C 1,1 C -1,1 C 93 % 0 lf 1037,4 hPa 0,0 l/m 0 min 0 min 0 W/m 10,5 km/h (2 Bft) 97,87 %
29.12.2016 23:48 1,0 C 1,1 C -1,1 C 93 % 0 lf 1037,4 hPa 0,0 l/m 0 min 0 min 0 W/m 12,6 km/h (3 Bft) 97,87 %
29.12.2016 23:50 1,0 C 1,1 C -1,1 C 93 % 0 lf 1037,5 hPa 0,0 l/m 0 min 0 min 0 W/m 12,6 km/h (3 Bft) 95,65 %
29.12.2016 23:52 1,0 C 1,1 C -1,1 C 93 % 0 lf 1037,4 hPa 0,0 l/m 0 min 0 min 0 W/m 10,5 km/h (2 Bft) 97,87 %
29.12.2016 23:54 1,0 C 1,1 C -1,1 C 93 % 0 lf 1037,5 hPa 0,0 l/m 0 min 0 min 0 W/m 10,5 km/h (2 Bft) 97,62 %
29.12.2016 23:56 0,9 C 1,1 C -1,1 C 93 % 0 lf 1037,5 hPa 0,0 l/m 0 min 0 min 0 W/m 12,6 km/h (3 Bft) 98,00 %
29.12.2016 23:58 0,9 C 1,1 C -1,1 C 93 % 0 lf 1037,5 hPa 0,0 l/m 0 min 0 min 0 W/m 10,5 km/h (2 Bft) 95,92 %
_ Min-Zeit 09:04 07:50 08:04 14:12 08:06 21:34 - - - - 00:00 03:00
Minimum _ -3,4 C -4,4 C -5,6 C 80 % 0 lf 1037,0 hPa - - - - 0,0 km/h (0 Bft) 85,11 %
_ Max-Zeit 14:14 13:58 14:24 11:50 00:00 00:00 00:00 09:00 11:18 12:30 14:00 00:06
Maximum _ 5,2 C 11,1 C 3,9 C 98 % 15 lf 1042,1 hPa 0,0 l/m 2 min 2 min 235 W/m 29,3 km/h
S (5 Bft)
100,00 %
Durchschnitt _ 0,5 C 0,7 C -1,9 C 91 % 4 lf 1039,0 hPa #0,0 l/m #5:53 h #8 min. 90 W/m 7,4 km/h (2 Bft) 95,84 %
© 2016 W. Hausmann